                ,  0.290,  0.386,  0.483,  0.580,  0.676,  0.773,  0.869,  0.966,  1.063,  1.159,  1.256,  1.352,  1.449,  1.545,  1.642,  1.739,  1.835,  1.932,  2.028,  2.125,  2.222,  2.318,  2.415,  2.511,  2.608,  2.705,  2.801,  2.898,  2.994,  3.091,  3.188,  3.284,  3.381,  3.477,  3.574,  3.671,  3.767,  3.864,  3.960,  4.057,  4.153,  4.250,  4.347,  4.443,  4.540,  4.636,  4.733,  4.830,  4.926,  5.023,  5.119,  5.216,  5.313,  5.409,  5.506,  5.602,  5.699,  5.796
2000/12/10 00:00,  999.0,   10.0,  999.0,    8.0,    9.2,   10.7,    8.1,    7.2,    7.1,    7.3,  999.0,  999.0,  999.0,  999.0,  999.0,  999.0,  999.0,  999.0,   25.7,   26.9,  999.0,  999.0,  999.0,  999.0,   33.2,   34.3,   35.6,   37.1,   37.9,  999.0,  999.0,   41.6,   42.0,   41.2,   41.6,  999.0,   42.0,  999.0,  999.0,   42.0,   41.3,   41.7,   41.2,  999.0,  999.0,   41.8,   41.6,  999.0,   41.4,   41.6,   42.1,  999.0,  999.0,  999.0,   41.7,  999.0,  999.0,   41.2
2000/12/10 00:10,  999.0,   10.3,    9.2,    8.7,    9.1,    8.8,    7.6,    6.9,    6.7,    6.0,    4.6,    4.4,  999.0,    6.5,  999.0,  999.0,  999.0,   26.3,   21.2,   24.6,   23.2,   25.5,  999.0,   31.7,   32.9,   34.6,   35.9,   36.6,   38.9,   41.3,   42.0,   41.7,   42.0,   42.0,   42.2,   42.3,   41.8,   41.7,   41.5,   41.7,   41.9,   42.2,   40.8,   41.3,   41.8,   41.8,   41.8,   42.2,   41.7,   41.8,   41.8,   41.4,   41.6,   41.7,   41.8,   42.0,   41.6,   41.1
2000/12/10 00:20,  999.0,    9.1,    8.3,    9.1,    8.9,    8.3,    8.5,    7.3,    7.0,    6.0,    4.2,  999.0,  999.0,  999.0,  999.0,  999.0,  999.0,   21.6,  999.0,   25.9,   27.8,  999.0,   31.2,   31.7,   35.2,   35.6,   38.2,   38.0,   40.4,  999.0,  999.0,   42.1,  999.0,   40.7,  999.0,   41.6,  999.0,   41.7,   42.0,   42.0,   41.3,   41.7,   41.9,   41.5,   41.4,   41.7,   41.5,   42.3,   41.6,   41.0,   42.2,   41.8,   41.4,   42.0,   42.1,   42.0,   41.8,   41.8
2000/12/10 00:30,  999.0,    9.0,    8.6,    9.5,    9.3,    8.6,    9.1,    8.5,    8.7,    7.7,    5.8,  999.0,  999.0,  999.0,  999.0,  999.0,  999.0,   22.6,   23.4,  999.0,  999.0,   28.5,  999.0,   30.7,   32.6,   33.6,   34.7,   36.2,  999.0,   38.8,   40.3,   41.5,  999.0,   42.8,   41.8,   42.0,   42.0,   41.7,   41.8,   41.5,   42.1,   41.8,   41.4,   42.1,   41.9,  999.0,   42.0,   27.6,   42.2,   20.8,   41.7,   41.8,   41.7,   42.2,   31.4,   41.7,   27.5,   42.1
2000/12/10 00:40,  999.0,    9.0,    7.7,    8.8,    9.0,    9.2,    9.8,    9.1,    7.0,    6.9,  999.0,  999.0,  999.0,  999.0,  999.0,   19.7,   22.0,   23.2,   24.8,   25.6,   27.1,   27.6,   29.9,   31.8,   33.4,   34.0,   37.3,   36.8,   40.4,   40.4,  999.0,   41.5,   41.7,   42.1,   42.0,   42.0,   42.1,   42.1,   41.9,   42.0,   41.1,   41.8,   41.4,   42.1,   41.5,   41.8,  999.0,   42.8,  999.0,   41.8,   42.4,   42.1,   42.3,   42.2,   41.6,   41.3,   41.7,   42.0
2000/12/10 00:50,  999.0,   21.6,    6.0,  999.0,    8.6,    9.9,    9.9,  999.0,   13.9,    5.9,   21.4,  999.0,   21.1,   21.2,   20.1,   21.6,   20.8,   23.6,   24.8,   25.2,   28.2,   32.0,  999.0,   32.6,   33.4,   36.4,   36.9,   37.9,   40.3,   42.0,  999.0,  999.0,   41.4,   41.7,   42.0,   42.0,   42.4,   41.7,   42.2,   41.1,   41.7,   41.6,   42.1,   42.4,   41.6,  999.0,   41.0,   42.3,   41.9,   42.0,   41.8,   42.0,   41.7,   42.1,   41.9,   41.5,   41.8,   41.9
2000/12/10 01:00,  999.0,    7.8,    7.4,    1.1,    9.6,   10.8,   -0.1,    8.9,    9.7,    3.4,    4.6,   18.6,    5.0,  999.0,   21.1,   21.4,   21.0,   21.8,   23.0,   24.5,   26.2,   27.0,   29.1,   30.2,   30.8,   33.8,   34.2,   36.0,   37.3,   38.5,   40.6,   42.0,  999.0,   42.3,   41.7,   41.5,   42.1,   41.1,   41.4,   41.4,   41.8,   42.3,   42.1,   42.1,   42.4,   42.1,   42.4,   41.0,   41.8,   34.7,  999.0,   41.9,   41.8,   41.7,   27.8,   42.0,   -0.2,   -0.4
2000/12/10 01:10,  999.0,    9.6,   13.0,   13.2,   11.6,   18.0,    7.1,   20.3,  999.0,  999.0,   21.0,   21.2,   20.9,   21.5,   21.1,   20.4,   20.9,  999.0,   21.9,   27.6,   24.3,   29.3,   28.4,   31.3,   34.4,   33.7,   35.2,   39.8,   36.0,  999.0,   40.0,   41.1,   41.9,   41.4,   41.4,   41.7,   41.5,   42.4,   41.8,   41.5,   42.4,   42.6,   41.4,   41.8,   41.6,   42.2,   41.6,   41.8,   41.8,   41.4,  999.0,   41.7,  999.0,   41.7,   42.0,   41.9,   41.9,   41.9
2000/12/10 01:20,  999.0,   15.3,   14.7,    8.5,  999.0,   21.5,   20.9,   21.9,   21.0,  999.0,   21.4,   21.1,   20.9,   22.0,   20.7,  999.0,   21.1,   21.7,   29.4,   30.4,   31.8,   33.2,   29.0,   33.8,   34.6,   34.4,   38.7,   39.8,   40.8,   41.5,   41.4,   42.1,   41.5,   41.5,   41.5,   41.3,   41.1,   41.6,   42.0,   41.5,   41.7,   41.7,   41.5,   41.5,   42.0,   41.5,   42.0,   40.9,   41.6,   41.8,   41.6,   42.1,   41.5,   42.2,   41.6,   41.6,   42.1,   41.9
2000/12/10 01:30,  999.0,   22.5,   21.6,   21.4,   22.0,   21.1,   21.3,   21.3,   21.0,   21.3,  999.0,   21.3,  999.0,   20.8,   20.8,   20.9,   21.3,  999.0,   24.9,   24.3,   26.3,   27.4,   29.9,   30.5,   33.6,   36.7,   38.3,  999.0,   41.6,   41.1,   41.8,   41.7,   41.3,   41.6,   41.8,   41.9,   41.6,   42.4,   41.9,   41.6,   41.4,   42.0,   41.9,  999.0,   42.1,   42.2,   42.0,   42.2,   42.5,   42.0,   41.9,   42.1,   41.7,  999.0,   41.6,   42.1,   42.2,   41.9
2000/12/10 01:40,  999.0,   21.0,   20.1,   21.8,   22.2,   21.6,   21.0,   20.5,  999.0,   20.9,  999.0,   20.9,   21.4,   21.1,   21.1,   21.3,   22.0,   23.2,   25.1,   25.6,   27.0,   27.8,   30.3,   31.1,   33.1,   35.2,  999.0,   37.2,   39.0,   41.0,   41.6,   41.7,   42.0,   42.0,   42.0,  999.0,   41.7,   42.2,   41.4,   40.9,   41.4,   41.5,   42.1,   42.0,   41.5,   41.6,   42.4,   42.2,   43.1,   42.1,   41.8,   41.8,   41.5,  999.0,   41.5,   41.6,   41.4,   41.8
2000/12/10 01:50,  999.0,    8.8,   21.0,   22.2,   19.6,   21.5,  999.0,   21.4,   20.6,   14.7,   21.2,   20.9,   17.1,   20.7,   20.1,   17.2,   22.2,  999.0,   11.2,   24.8,   25.5,   27.3,   29.5,   31.4,   33.6,   34.8,   37.2,   38.6,   40.6,   42.0,   41.7,   38.2,   41.7,   41.8,  999.0,   42.1,   41.6,   42.2,   42.5,   42.2,   41.7,   41.7,   42.3,   41.9,   41.3,   41.6,   41.7,   42.1,   41.6,   42.0,   41.7,   42.0,   41.5,   41.1,   41.7,   41.5,   41.4,   41.6
2000/12/10 02:00,  999.0,  999.0,  999.0,   18.2,   21.5,   21.4,   21.5,   21.3,  999.0,  999.0,   21.5,  999.0,   21.1,  999.0,  999.0,   20.6,   18.5,   19.2,   22.1,   23.8,   26.2,   28.2,  999.0,   31.5,   31.7,   34.4,   34.5,   39.3,   40.0,   40.6,   41.4,   41.8,   41.5,   41.6,   42.2,   41.7,   42.1,   42.1,   42.0,   41.6,   42.6,   42.0,   41.8,   41.3,   42.4,  999.0,   42.5,   42.3,   42.0,  999.0,   42.1,   41.4,   42.3,  999.0,   41.4,   42.2,   41.9,   42.0
2000/12/10 02:10,  999.0,  999.0,  999.0,    7.0,   15.7,    8.0,   21.6,   21.7,  999.0,   21.4,   12.5,   18.5,   21.2,   21.0,   18.0,    5.7,   15.0,   17.7,   21.1,   20.3,   17.2,    9.0,   28.7,   13.6,   31.3,   32.9,  999.0,   40.2,   38.2,   37.6,   41.4,   38.8,   42.2,   40.9,   41.3,   42.2,   41.8,   42.1,   41.8,   41.7,   42.1,   42.0,   41.5,   42.1,   41.8,   41.8,   42.1,   41.5,   41.2,  999.0,   41.3,   41.7,   41.5,   41.7,   41.7,   41.8,   41.7,   41.6
2000/12/10 02:20,  999.0,   20.8,   20.9,   22.0,   21.3,  999.0,  999.0,   20.9,   21.9,   21.4,   21.6,   21.1,   20.8,   20.8,   20.9,   21.8,   22.5,   23.3,   20.0,   24.5,   26.4,   25.7,   29.7,   31.9,   33.4,   34.9,   37.2,   39.2,   41.2,   41.7,   42.2,   41.5,   41.9,   42.1,   42.3,   41.5,   41.8,   42.2,   41.6,   42.2,   41.5,   42.0,  999.0,   41.4,   41.3,   41.6,   42.1,   41.8,  999.0,   41.3,  999.0,   41.8,   41.2,   41.8,   41.5,   41.9,   42.0,  999.0
2000/12/10 02:30,  999.0,   21.2,   16.7,   22.1,   22.6,   21.8,   12.8,   27.3,   21.8,   21.2,   21.1,   21.0,   21.1,  999.0,    9.9,   10.4,   22.3,   24.2,  999.0,   27.2,  999.0,   29.6,   31.3,   23.3,   33.2,   34.1,   35.3,   40.3,   37.9,   40.3,   41.7,   41.4,   41.6,   41.9,   42.2,   41.9,   41.9,   41.7,   41.8,   42.0,   42.0,   41.8,   41.8,   27.6,   31.1,  999.0,   42.1,   27.9,   20.4,   41.5,   41.4,  999.0,   41.4,   42.1,   41.5,   41.7,  999.0,   42.1
2000/12/10 02:40,  999.0,    7.1,    7.4,    6.8,    7.4,    8.8,    5.6,    7.1,    6.9,    5.2,    6.3,    7.9,    4.1,   10.4,   13.5,  999.0,  999.0,  999.0,    9.3,  999.0,  999.0,  999.0,  999.0,  999.0,  999.0,  999.0,  999.0,  999.0,  999.0,  999.0,  999.0,  999.0,  999.0,  999.0,  999.0,  999.0,  999.0,  999.0,  999.0,  999.0,  999.0,  999.0,  999.0,  999.0,  999.0,  999.0,  999.0,  999.0,  999.0,  999.0,  999.0,  999.0,  999.0,  999.0,  999.0,  999.0,  999.0,  999.0
2000/12/10 02:50,  999.0,    6.8,  999.0,    8.0,    8.7,    5.5,    0.0,    5.9,  999.0,    4.9,    6.0,    6.6,    3.2,    2.1,  999.0,   -1.8,    6.3,  999.0,  999.0,  999.0,  999.0,  999.0,  999.0,  999.0,  999.0,  999.0,  999.0,  999.0,  999.0,  999.0,  999.0,  999.0,  999.0,  999.0,  999.0,  999.0,  999.0,  999.0,  999.0,  999.0,   27.0,  999.0,  999.0,  999.0,  999.0,  999.0,  999.0,   24.7,  999.0,  999.0,  999.0,  999.0,  999.0,  999.0,  999.0,  999.0,   28.6,  999.0
2000/12/10 03:00,  999.0,    6.7,    6.2,    4.2,    6.2,    7.7,    7.8,    7.4,    6.2,    3.8,    3.3,    3.1,    2.7,    7.7,   -6.0,  999.0,  999.0,  999.0,    5.2,    5.0,  999.0,  999.0,  999.0,  999.0,  999.0,  999.0,  999.0,  999.0,  999.0,  999.0,  999.0,  999.0,  999.0,  999.0,  999.0,  999.0,  999.0,  999.0,  999.0,  999.0,  999.0,  999.0,  999.0,  999.0,   20.9,  999.0,  999.0,  999.0,  999.0,  999.0,  999.0,  999.0,  999.0,  999.0,  999.0,  999.0,  999.0,   26.2
2000/12/10 03:10,  999.0,    7.5,    7.7,    4.8,    7.3,    7.0,    7.4,    9.1,    6.0,    6.2,    4.8,    8.9,    5.5,    5.7,    2.7,    5.7,    1.4,    4.3,    6.5,  999.0,    7.5,  999.0,  999.0,  999.0,  999.0,  999.0,  999.0,  999.0,  999.0,  999.0,  999.0,  999.0,   32.6,  999.0,  999.0,  999.0,  999.0,  999.0,  999.0,  999.0,  999.0,  999.0,  999.0,  999.0,  999.0,  999.0,  999.0,  999.0,  999.0,  999.0,  999.0,  999.0,  999.0,  999.0,  999.0,  999.0,  999.0,  999.0
2000/12/10 03:20,  999.0,    7.1,    6.5,  999.0,  999.0,    7.9,    9.1,    7.9,    7.4,    5.2,    4.4,    3.6,    6.1,  999.0,    3.3,    0.5,   -2.2,    5.0,  999.0,  999.0,  999.0,  999.0,  999.0,  999.0,  999.0,  999.0,  999.0,  999.0,  999.0,  999.0,  999.0,  999.0,  999.0,  999.0,  999.0,  999.0,  999.0,   30.9,  999.0,  999.0,  999.0,  999.0,  999.0,  999.0,   18.7,  999.0,  999.0,  999.0,  999.0,  999.0,  999.0,  999.0,  999.0,  999.0,  999.0,  999.0,  999.0,  999.0
2000/12/10 03:30,  999.0,    7.8,   -0.3,   -0.9,    5.5,  999.0,    4.7,    5.8,    6.2,    7.0,    6.1,   -0.2,    2.8,    1.6,    0.1,    0.8,    2.6,    2.0,    0.6,  999.0,  999.0,  999.0,  999.0,  999.0,  999.0,  999.0,  999.0,  999.0,  999.0,  999.0,   16.3,  999.0,  999.0,  999.0,  999.0,  999.0,  999.0,  999.0,  999.0,  999.0,  999.0,  999.0,  999.0,  999.0,  999.0,   21.0,  999.0,  999.0,  999.0,  999.0,   22.3,  999.0,  999.0,  999.0,  999.0,   26.9,  999.0,  999.0
2000/12/10 03:40,  999.0,    5.7,    5.0,    7.8,    7.7,    2.6,   -0.0,    1.5,    6.2,    6.2,    1.5,    5.4,    0.6,  999.0,    2.2,  999.0,  999.0,    1.7,    6.3,    9.2,  999.0,  999.0,  999.0,  999.0,  999.0,  999.0,  999.0,  999.0,  999.0,  999.0,  999.0,   40.9,   29.2,   30.9,   41.1,  999.0,   30.6,  999.0,   41.7,   33.0,  999.0,  999.0,  999.0,   42.2,   42.0,   41.4,  999.0,  999.0,  999.0,   41.4,   41.8,  999.0,   41.4,   42.4,   42.1,   42.0,   41.5,   42.1
2000/12/10 03:50,  999.0,    9.2,    8.1,    7.3,    8.0,    9.6,    5.6,    4.8,    4.8,    7.4,    7.7,  999.0,  999.0,  999.0,  999.0,    0.7,   -1.6,  999.0,  999.0,  999.0,  999.0,  999.0,  999.0,  999.0,  999.0,  999.0,  999.0,  999.0,   33.6,   37.0,  999.0,  999.0,  999.0,   40.5,   41.5,   41.6,   42.0,   41.8,  999.0,  999.0,   41.6,   41.2,   41.9,   42.0,   41.7,   41.6,   42.0,   42.0,   41.7,   41.6,   42.2,   41.6,  999.0,   41.5,   42.0,   42.4,   41.3,   42.0
2000/12/10 04:00,  999.0,  999.0,    6.6,   10.0,    8.3,    8.8,    8.4,    5.6,    7.1,    8.1,    8.1,    9.0,  999.0,  999.0,  999.0,   23.6,  999.0,   22.4,   21.4,  999.0,   23.7,  999.0,   25.5,   25.2,   26.8,   28.3,   29.4,   30.9,   31.2,   32.5,   33.9,   34.3,   34.9,   35.5,   37.4,   38.9,   38.4,   40.1,   40.6,   41.5,   41.7,   42.0,   42.2,   42.3,   42.1,   41.6,   41.0,   41.7,   41.4,   41.3,   42.1,   41.7,  999.0,  999.0,   41.7,   41.5,   41.9,   41.8
2000/12/10 04:10,  999.0,  999.0,  999.0,    8.4,  999.0,    8.1,    6.9,    4.0,    3.3,    4.7,    6.2,  999.0,  999.0,  999.0,  999.0,  999.0,  999.0,  999.0,   21.4,  999.0,   23.7,   23.3,   25.1,  999.0,   27.1,   30.2,   26.2,   31.6,   27.3,   28.1,  999.0,  999.0,  999.0,   41.0,   41.1,  999.0,   41.6,   41.6,   41.8,  999.0,  999.0,   42.0,   41.8,   41.4,  999.0,  999.0,   40.4,  999.0,  999.0,   38.5,   41.6,   41.5,   42.0,   37.1,   41.9,   37.8,   41.5,   42.4
2000/12/10 04:20,  999.0,    8.5,    8.1,    9.7,   10.0,    9.9,    8.5,    8.4,    7.5,    6.4,    5.5,  999.0,  999.0,  999.0,  999.0,  999.0,  999.0,   23.9,   26.8,   23.9,   26.7,   27.1,   28.6,   27.9,   30.8,   31.8,   31.9,   34.6,   35.2,   36.6,   36.9,   37.2,  999.0,   39.4,   40.8,   41.4,   41.6,   42.1,   42.5,   41.9,   42.3,   41.6,   42.0,   41.8,   40.8,   42.5,   41.3,   42.4,   41.9,   42.1,   42.1,   41.9,   42.1,   41.9,   41.7,   42.3,   41.6,  999.0
2000/12/10 04:30,  999.0,    7.0,    8.3,    8.5,    5.8,    3.4,    1.4,    1.4,   -3.9,    1.4,    6.6,    5.6,  999.0,   -1.0,  999.0,  999.0,   10.2,    1.0,    3.7,   14.2,   24.8,   27.4,   27.6,   31.1,   33.3,   32.8,  999.0,   36.5,  999.0,   40.0,  999.0,   42.2,   41.8,   41.2,   41.8,   41.8,  999.0,   41.8,   42.2,   41.7,   42.2,   42.1,   42.2,  999.0,   20.5,   42.4,   41.8,   41.0,  999.0,  999.0,  999.0,   -0.9,   41.9,  999.0,   20.5,   20.4,   27.6,   27.5
2000/12/10 04:40,  999.0,  999.0,    5.8,    9.4,    8.3,  999.0,  999.0,  999.0,  999.0,    2.4,    2.7,    0.8,    2.1,    4.2,    4.5,  999.0,  999.0,  999.0,  999.0,  999.0,  999.0,  999.0,  999.0,  999.0,   34.4,   35.8,  999.0,  999.0,  999.0,  999.0,  999.0,   32.9,   33.1,   34.2,   41.6,  999.0,  999.0,  999.0,   39.3,  999.0,   41.6,  999.0,   39.3,   41.2,   41.8,   41.5,   41.7,   41.6,   41.8,   42.1,   42.2,  999.0,  999.0,   42.2,   41.8,   41.6,   41.7,   41.5
2000/12/10 04:50,  999.0,    7.5,    8.9,    9.2,    9.8,   10.4,  999.0,  999.0,    7.5,    4.7,  999.0,    8.6,  999.0,  999.0,  999.0,  999.0,   21.4,   22.7,   23.8,   27.4,  999.0,   30.6,   31.9,   36.4,   37.8,   34.8,   38.6,  999.0,   40.3,   40.4,   39.3,   42.6,  999.0,   42.0,   41.9,   41.9,   41.6,   41.6,   41.7,   41.8,   41.8,   42.3,   42.4,   42.1,   42.3,   42.0,   41.7,   41.2,   41.6,   41.7,   41.8,   41.8,   42.4,  999.0,   41.6,   42.2,   41.6,   42.4
2000/12/10 05:00,  999.0,    8.6,    5.2,   10.4,    5.8,  999.0,    9.6,    6.5,    6.9,    5.2,    7.4,    7.6,   11.6,    2.4,  999.0,   -4.5,   -4.7,    6.7,   12.6,   24.9,   26.1,  999.0,  999.0,   29.9,   33.1,  999.0,  999.0,   36.6,  999.0,   39.3,   42.1,   40.3,   39.9,  999.0,   30.1,   41.8,   41.8,   41.8,   41.7,   41.4,   39.2,   41.1,   41.2,   41.3,   41.4,   41.9,   42.1,   42.0,   41.8,   41.6,   41.8,   41.9,   42.1,  999.0,   42.4,   42.0,   42.2,  999.0
2000/12/10 05:10,  999.0,    0.7,    5.5,    1.1,    0.7,    2.1,   -2.2,    4.7,   -0.4,   -0.8,    0.1,   -3.4,   -5.3,    0.2,   -4.5,   -0.9,   -7.2,   -6.4,  999.0,  999.0,  999.0,  999.0,  999.0,    8.9,  999.0,  999.0,  999.0,  999.0,  999.0,  999.0,  999.0,  999.0,  999.0,  999.0,  999.0,  999.0,  999.0,  999.0,  999.0,  999.0,  999.0,   29.8,  999.0,  999.0,  999.0,  999.0,  999.0,  999.0,  999.0,  999.0,  999.0,  999.0,  999.0,  999.0,  999.0,  999.0,  999.0,  999.0
2000/12/10 05:20,  999.0,   10.7,  999.0,   -2.1,   -1.1,    2.1,    2.8,    1.8,  999.0,    5.7,    3.1,    5.9,    6.3,    0.4,   20.6,   21.5,   23.5,  999.0,   25.3,   14.5,   27.0,   29.4,  999.0,   31.5,   33.0,   34.3,   36.1,  999.0,  999.0,   40.8,  999.0,   39.8,  999.0,  999.0,  999.0,  999.0,   30.0,   20.9,  999.0,  999.0,   30.0,   -0.4,  999.0,  999.0,  999.0,  999.0,  999.0,  999.0,   21.5,   -0.7,  999.0,   -0.7,   -1.0,   41.9,   21.0,  999.0,  999.0,  999.0
2000/12/10 05:30,  999.0,  999.0,  999.0,    7.5,   10.3,    7.5,  999.0,  999.0,    4.4,    6.7,    5.9,    7.2,    9.9,  999.0,  999.0,  999.0,  999.0,  999.0,  999.0,  999.0,  999.0,  999.0,   28.5,   29.8,   32.9,   18.6,   34.3,   -4.5,   -2.7,  999.0,  999.0,   -1.0,  999.0,   14.7,   15.3,  999.0,   -0.9,  999.0,  999.0,   -1.6,  999.0,  999.0,   -1.3,  999.0,  999.0,    8.8,   -1.0,  999.0,  999.0,  999.0,  999.0,   -0.9,   -0.8,   -1.3,  999.0,   -0.5,   -0.8,   -0.6
2000/12/10 05:40,  999.0,  999.0,  999.0,  999.0,    3.1,    8.8,    5.0,    5.5,    6.3,    6.7,    9.7,   13.6,   11.8,  999.0,   21.0,   21.0,   21.5,   25.0,   25.1,   20.5,   27.9,   30.3,   31.2,   32.4,   33.4,   36.3,   37.5,  999.0,  999.0,  999.0,  999.0,  999.0,  999.0,  999.0,  999.0,  999.0,  999.0,  999.0,  999.0,  999.0,  999.0,  999.0,  999.0,   12.3,  999.0,  999.0,  999.0,  999.0,   -0.9,   -1.5,   -0.3,   -0.7,   -0.8,   -0.7,   -0.7,   -0.6,   -0.6,   -0.7
2000/12/10 05:50,  999.0,    9.5,   11.6,   12.6,    8.2,    8.7,    4.9,    6.3,    3.6,    7.8,    9.0,    9.3,   11.4,   11.1,    9.9,  999.0,  999.0,    3.1,    3.8,  999.0,    5.0,    6.3,    7.5,    7.3,    7.2,   21.6,    8.3,   22.2,   16.5,   23.8,   31.6,   31.9,   33.0,   21.9,   21.5,   10.8,   32.3,   32.7,   33.1,   40.7,   28.8,   28.2,   28.6,   32.3,   34.1,   28.4,  999.0,  999.0,  999.0,   41.5,  999.0,   -0.8,  999.0,  999.0,   41.4,  999.0,   -0.9,  999.0
2000/12/10 06:00,  999.0,   10.5,   12.3,   14.1,   13.0,   10.3,    8.6,    8.0,    6.8,    7.0,    7.4,    6.2,    8.8,    8.7,    5.7,  999.0,    2.9,    4.0,    6.1,   10.8,  999.0,  999.0,   11.4,   11.8,   14.4,   13.3,   16.6,   17.9,   27.1,   22.9,   26.5,   42.3,   33.4,   24.5,   23.6,   41.3,  999.0,  999.0,  999.0,   42.1,   31.0,   28.7,  999.0,  999.0,   41.5,   -1.0,   14.5,   41.9,   -0.7,   20.4,   20.3,   20.5,    9.6,   -0.9,   -1.0,   13.2,   13.5,   -1.0
2000/12/10 06:10,  999.0,   10.9,   11.9,   14.2,   13.3,   13.0,    9.7,   10.1,    9.0,    7.2,    7.7,    8.7,    8.4,    8.3,    6.2,  999.0,  999.0,    7.8,  999.0,  999.0,  999.0,  999.0,  999.0,    6.2,   12.7,  999.0,    4.6,    4.0,   12.1,   11.1,   12.6,   13.5,   14.1,   11.5,   12.4,   14.0,   23.0,   25.0,  999.0,  999.0,  999.0,  999.0,  999.0,  999.0,  999.0,   12.8,  999.0,  999.0,   -2.1,  999.0,  999.0,   -0.7,  999.0,  999.0,  -14.3,  -41.8,  -22.0,  -14.5
2000/12/10 06:20,  999.0,    9.9,   13.1,   14.1,   12.7,   11.3,    9.8,    9.2,  999.0,    8.6,    9.7,    9.3,    9.8,    8.3,    8.3,  999.0,    4.3,    5.4,    6.6,    7.1,  999.0,  999.0,  999.0,  999.0,  999.0,  999.0,  999.0,  999.0,  999.0,  999.0,  999.0,  999.0,  999.0,  999.0,  999.0,  999.0,  999.0,   -1.1,   -0.9,   -0.5,   -1.2,   -0.8,   -0.2,   -0.7,   -0.9,   -0.6,   -1.0,   -1.1,   -1.0,   -0.4,   -1.5,   -0.8,   -0.7,   -0.6,   -0.9,   -1.2,   -0.6,   -0.7
2000/12/10 06:30,  999.0,   10.5,   12.6,   13.9,   12.3,   10.8,    8.3,    7.6,    7.4,    7.6,    8.0,   -0.7,  999.0,    9.4,    5.0,    4.4,  999.0,  999.0,  999.0,  999.0,  999.0,    7.4,  999.0,  999.0,  999.0,  999.0,  999.0,  999.0,  999.0,  999.0,  999.0,  999.0,  999.0,  999.0,  999.0,  999.0,  999.0,   -0.4,  999.0,   -0.4,   -0.8,   -0.4,   -0.6,   -1.0,   -0.6,    6.7,   -0.3,    1.4,    8.4,   10.2,   -0.2,   18.7,   -0.7,   -0.3,   -0.7,    6.8,    6.5,   -0.7
2000/12/10 06:40,  999.0,    9.5,   11.9,   12.4,   10.3,    9.5,    9.7,    7.2,    5.2,    9.5,   -0.2,  999.0,  999.0,    4.5,    3.8,    7.4,    5.3,  999.0,   25.9,  999.0,   29.1,  999.0,   30.9,  999.0,  999.0,   33.6,   35.7,   36.9,  999.0,   40.2,   41.8,   41.2,   41.3,  999.0,   25.4,   41.9,   20.9,   20.2,   24.9,   42.0,   20.2,   40.9,   20.7,   20.8,   24.9,   20.6,   34.5,   16.1,   20.1,   15.4,   30.7,   20.5,   17.8,    7.6,  999.0,   -0.3,   41.7,  999.0
2000/12/10 06:50,  999.0,   11.1,   11.9,   11.0,   10.0,    8.2,    8.1,    6.8,    6.0,   11.4,    5.2,    5.3,  999.0,  999.0,    2.9,    4.8,  999.0,   26.1,   13.3,  999.0,  999.0,   30.2,  999.0,   32.0,  999.0,   34.2,   35.3,   36.0,   38.5,   38.9,   39.8,   40.0,   41.3,   41.8,   41.6,   41.4,   41.7,   42.2,   42.2,   42.2,   42.1,   41.9,   42.4,   41.8,   41.5,   42.1,   42.3,   41.8,   42.3,   41.9,   41.6,  999.0,   42.2,   42.2,   42.3,   41.7,   41.9,   42.3
2000/12/10 07:00,  999.0,   12.8,   10.0,   10.3,    9.1,    7.8,    6.6,    3.6,    2.5,   -0.7,    0.4,  999.0,    6.1,    1.1,    1.3,  -22.0,  999.0,  -21.5,  999.0,  -20.4,  -19.7,   30.2,    6.6,   31.1,   35.6,   17.1,   18.5,   27.3,   39.7,   12.6,   14.4,   33.1,   42.1,   31.5,   27.7,   41.8,   34.6,   27.5,   41.8,   42.2,   41.5,   41.7,   41.7,   41.8,   41.8,   42.0,   41.5,   20.8,   20.2,   41.9,   41.9,   42.1,   31.1,   42.1,   42.3,   34.8,   34.8,   41.7
2000/12/10 07:10,  999.0,    4.4,    7.4,   10.8,    9.8,   10.9,    4.4,   10.1,    0.5,  999.0,    0.8,    2.0,   -3.2,   -3.0,   -3.0,   -4.8,    4.5,   -0.5,    3.8,    1.8,    4.9,    5.2,   -0.2,    4.8,   -0.3,    2.4,    7.3,   19.0,   11.9,    8.0,    8.8,   13.9,    7.1,   11.4,   13.6,   -1.1,  999.0,  999.0,   41.5,   -0.3,    9.3,  999.0,   22.6,   14.0,    9.1,   18.7,    3.1,    9.0,   11.9,   10.3,    7.6,   21.6,    0.6,   -1.3,   11.4,   21.0,   10.3,  -12.9
2000/12/10 07:20,  999.0,    0.4,    0.2,   12.2,  999.0,    2.5,    4.0,    2.9,    7.6,  999.0,   -0.4,  999.0,  999.0,  999.0,  999.0,  999.0,  999.0,    0.6,   -0.4,  999.0,  999.0,  999.0,  999.0,  999.0,  999.0,  999.0,  999.0,  999.0,  999.0,   -6.0,   -6.0,  999.0,   -2.7,    8.8,  999.0,    7.2,  999.0,    6.1,    4.6,    5.4,  999.0,    4.2,    2.2,    2.0,    4.7,    3.4,    0.9,    1.5,    1.8,    1.0,    0.6,    0.7,    1.2,    1.0,    0.9,    0.2,    0.5,    0.6
2000/12/10 07:30,  999.0,    0.1,  999.0,  999.0,    9.2,    7.9,    5.9,    6.4,    8.3,   10.4,  999.0,  999.0,  999.0,  999.0,  999.0,   20.5,   20.9,   21.2,   21.0,  999.0,   18.5,   17.4,   17.2,   16.0,   13.6,   15.1,  999.0,   11.1,    9.4,    8.4,   18.4,    5.8,    2.4,    7.5,    3.5,    2.6,    1.6,    0.7,    0.9,    1.2,    7.3,  999.0,   12.4,  999.0,    0.5,   20.9,   12.5,    5.4,    0.7,    0.7,    0.4,    3.9,   19.9,    7.6,    0.9,   11.2,    0.4,    0.4
2000/12/10 07:40,  999.0,    7.3,   12.9,   11.1,   10.3,    7.7,    6.7,    6.5,    8.8,   10.4,    6.6,   -0.1,  999.0,  999.0,  999.0,  999.0,   20.9,   19.2,   17.3,   -4.4,   15.4,   14.7,    1.6,   10.8,  999.0,   10.9,  -12.0,    7.8,  999.0,   -7.1,    5.5,    0.2,  999.0,  -40.4,  -20.4,    1.1,  -20.7,    0.8,  999.0,  999.0,    0.8,    1.7,    0.4,    1.3,   19.9,    0.8,   14.1,  999.0,   37.1,   17.4,    4.3,   -0.1,  999.0,   11.9,   21.1,    0.5,    0.3,   41.2
2000/12/10 07:50,  999.0,  999.0,   12.7,   10.4,    7.9,    7.8,    9.1,   10.3,    4.7,   20.7,   10.4,   20.8,   21.4,   21.3,   20.9,   20.1,   19.4,   19.1,  999.0,  999.0,   12.2,   12.0,   16.0,   10.1,  -21.2,   -5.9,   -7.5,  -19.3,   -3.5,  -18.2,    0.7,  -42.4,    2.0,    7.3,   -6.6,    9.3,   14.5,    0.8,  -20.5,  -19.6,   -6.1,    0.6,   10.5,    0.8,   14.8,  999.0,    1.0,    0.1,    0.8,    0.5,    0.4,    0.6,    0.7,    0.8,    0.8,    0.9,    0.7,    0.5
2000/12/10 08:00,  999.0,  999.0,   11.6,    9.4,    8.4,    8.4,   10.4,   12.0,   21.3,   20.4,   21.3,   21.2,   21.7,   21.8,   21.1,   21.3,   21.1,   21.3,   21.1,   18.9,   17.6,   16.2,   13.4,   11.9,   10.0,    7.6,    6.2,    4.5,    0.7,    2.1,    1.3,    0.9,    1.0,    0.5,    0.4,    0.9,    1.1,    0.8,    0.5,  999.0,    0.3,    0.5,    0.6,    0.5,    0.4,    0.8,    0.6,    0.8,    0.6,    0.9,    0.4,    0.6,    0.9,    1.0,    1.0,    0.6,    0.7,    0.6
2000/12/10 08:10,  999.0,  999.0,   10.6,    8.8,    7.5,    7.8,  999.0,  999.0,   21.4,   21.5,   21.3,   21.3,   21.1,   20.6,   20.9,   21.1,   22.0,   21.0,   20.4,   18.9,   16.7,   16.0,   11.2,   13.3,    9.8,    9.9,    5.8,    5.8,    3.7,    0.6,  999.0,    0.9,    0.7,    0.7,    0.6,    0.8,    0.9,    0.5,    0.3,    1.0,    0.8,    0.9,    0.5,    0.8,    0.9,    0.9,    0.6,    0.4,    0.5,    0.8,    0.6,    0.7,    1.1,    0.9,    1.3,    1.0,    0.6,    0.8
2000/12/10 08:20,  999.0,  999.0,  999.0,  999.0,  999.0,  999.0,  999.0,  999.0,   20.7,   21.0,   21.7,   20.8,   21.7,   22.1,   21.7,   21.1,   21.1,   21.2,   20.5,   18.8,   16.8,   15.0,   13.3,   11.2,    9.4,    7.3,    5.8,    3.8,    2.6,    1.1,    0.3,    0.3,    0.6,    0.7,    0.5,    0.9,    0.9,    1.2,    1.0,    0.8,    0.7,    1.1,    0.7,    0.5,    1.0,    0.7,    0.6,    0.7,    1.1,    0.6,    0.8,    0.6,    0.4,  999.0,    0.6,    1.0,    0.4,    0.7
2000/12/10 08:30,  999.0,  999.0,  999.0,   10.0,    2.2,    5.5,   12.7,   21.1,   21.3,   21.3,  999.0,   10.3,   21.0,   21.0,   21.4,   21.8,   20.9,   19.1,   17.3,   15.2,   13.7,    6.1,   -2.8,    1.9,    6.2,   -5.4,   -8.7,   -9.0,    0.7,    0.8,   -9.9,    0.6,  999.0,  -20.5,    0.5,    0.3,    0.8,   -6.5,   -6.3,  -13.4,  -41.7,    0.5,  -13.7,    1.1,  -20.4,  -13.4,  -13.8,   -9.6,  -10.1,  -13.4,   -6.2,   -9.4,  -20.3,    0.6,    0.2,    0.5,    0.2,    0.6
2000/12/10 08:40,  999.0,    5.5,    4.9,    5.8,   10.3,    6.6,    0.8,   14.4,   13.8,   21.4,   15.0,   21.3,   12.7,   21.8,   21.3,  999.0,   22.0,  999.0,  999.0,   16.2,  999.0,   23.8,   39.0,   41.2,   40.0,    2.9,   14.0,  999.0,  999.0,    0.7,  999.0,    0.8,    5.3,    0.6,    0.6,    0.6,    7.5,    0.7,    0.6,  999.0,  999.0,   15.7,  999.0,    0.4,    1.1,    1.0,    0.9,    6.5,  999.0,  999.0,    4.4,   41.2,   36.9,    0.4,    0.8,    0.4,    0.4,  -20.4
2000/12/10 08:50,  999.0,  999.0,  999.0,    9.8,   10.9,   -0.5,  999.0,   21.4,   15.3,   21.0,   20.6,   21.0,   21.3,   14.4,   20.3,  999.0,  999.0,   17.9,   16.7,   16.0,   14.6,  999.0,   11.2,    9.6,  999.0,    6.8,    4.4,    2.8,  -41.1,  999.0,   -8.6,  999.0,    0.6,  -41.7,  999.0,   -6.2,    0.2,  -13.4,  999.0,  -18.3,    0.9,    1.1,  999.0,  999.0,    0.0,    0.7,  999.0,    0.2,    0.7,    0.8,    1.0,  999.0,    3.2,  999.0,  999.0,   20.9,  999.0,    7.4
2000/12/10 09:00,  999.0,    4.7,    7.9,    9.2,    8.5,    2.4,    2.5,    7.0,    7.0,   10.3,    9.1,    9.7,   15.9,  999.0,  999.0,    6.6,    1.1,  999.0,  999.0,  999.0,   16.0,   13.2,   10.2,    8.8,    6.0,  999.0,    1.0,  999.0,  999.0,    0.7,    1.2,  999.0,    0.7,    1.0,    0.7,   -0.0,    0.4,    0.5,    0.6,    0.6,  999.0,    0.9,    0.8,    1.0,    0.7,    0.9,  999.0,    0.9,  999.0,    1.2,    0.8,    0.2,  999.0,    0.6,    0.5,    0.6,    0.8,  999.0
2000/12/10 09:10,  999.0,    9.9,    6.5,    7.4,    7.9,    4.5,    1.7,    3.7,    2.2,    3.6,    2.2,    4.5,  999.0,  -21.5,    3.6,   13.4,    1.8,  -23.7,   -3.2,  999.0,  999.0,   28.7,  999.0,   35.2,  999.0,  999.0,    9.9,    8.8,   42.0,   21.2,    5.0,    2.3,   19.3,   16.8,   14.6,    0.3,   11.5,    7.5,    0.9,   -8.8,  -20.7,   14.2,    7.5,    1.9,    3.4,    5.1,    8.1,    9.4,    4.5,    0.6,    1.2,   12.4,   21.4,    0.7,   10.0,    0.3,    0.4,    0.4
2000/12/10 09:20,  999.0,  999.0,  999.0,  999.0,    6.9,  999.0,    8.0,    0.9,    0.4,    9.4,   11.4,   21.3,   21.1,    5.7,  999.0,   19.9,   18.6,  999.0,   15.8,  999.0,   12.6,   11.3,    9.8,  999.0,  999.0,    5.8,    3.7,    2.2,    0.7,    1.0,  999.0,    0.7,    0.1,    1.3,    0.9,    1.2,    0.7,    0.5,    0.8,    1.0,    1.0,    0.5,    0.9,    0.6,    0.1,    0.8,  999.0,    0.6,    0.9,    1.2,  999.0,    0.4,  999.0,    1.0,    0.7,    1.0,    0.9,    0.3
2000/12/10 09:30,  999.0,    7.9,    8.0,    8.7,    9.2,    9.9,    5.8,  999.0,   16.0,   16.7,   21.1,   20.5,   21.3,   20.8,   20.1,   17.7,   22.6,   16.8,   13.5,   23.1,   12.5,   27.1,    9.5,   25.8,   24.0,   17.8,    4.7,   22.2,   14.9,   21.4,    1.1,    8.0,    1.9,    1.1,   31.6,  999.0,    0.7,    0.5,    7.7,    0.4,    1.4,    0.5,    0.4,    0.7,    1.2,    1.0,   -6.4,    0.4,  -13.8,    0.6,  -13.6,   -7.0,    0.8,    0.3,    0.7,  -10.0,    0.4,   -6.2
2000/12/10 09:40,  999.0,    1.0,    2.0,    5.1,    4.7,    5.8,    6.9,    5.5,    3.8,    4.2,   12.8,   16.3,   21.9,   20.8,   21.2,   21.0,   21.0,   21.6,   22.2,   21.4,   23.3,   28.1,   21.9,   32.5,   22.2,   37.7,   36.9,   26.5,   18.6,  -20.5,   -8.5,  999.0,  -41.5,   42.7,  999.0,   23.9,  999.0,   27.2,  999.0,    0.9,   11.0,  999.0,   14.9,  999.0,    6.6,  999.0,  999.0,    3.3,   14.7,    9.1,    5.4,    7.6,    0.7,    0.4,    0.3,   11.1,  -13.6,   13.4
2000/12/10 09:50,  999.0,    0.8,  999.0,  999.0,    2.9,   14.2,   14.4,   15.2,   21.3,   17.9,   17.1,   20.8,   20.7,   19.9,   19.2,   18.8,   16.1,   16.2,   14.3,   13.3,   12.0,   10.6,    9.9,    7.7,    5.6,    5.3,    6.0,    3.4,    0.9,    1.2,    0.3,  999.0,  999.0,    0.7,    0.9,  -20.1,    0.4,    0.6,    0.9,    0.8,  -20.7,    0.8,    0.6,   -6.3,    0.8,    0.7,   -9.8,   -6.4,    0.6,  -20.4,    0.5,   -6.1,    1.2,   -9.5,    1.1,  -13.6,  -13.5,  -13.6
2000/12/10 10:00,  999.0,    0.0,    3.8,    2.7,    3.8,    7.3,    7.9,    7.7,   13.2,   15.8,   21.0,   21.6,   20.6,   21.8,   25.9,   25.4,   42.8,   41.9,   28.4,   27.7,   26.6,  999.0,   25.2,   37.7,    3.8,    3.4,    1.1,    1.8,   11.7,  999.0,   19.5,   14.5,    3.1,    0.7,   15.8,    1.0,   21.5,   14.7,  999.0,    0.5,   21.0,    7.7,   11.9,   18.3,   12.8,   12.1,    0.8,    6.8,   20.6,   17.4,   13.7,    9.5,    1.2,    3.1,   11.6,  999.0,   14.2,    0.2
2000/12/10 10:10,  999.0,    0.2,    8.6,    9.2,    9.2,    8.9,    6.4,   11.6,   12.0,   13.7,   13.4,    4.8,   14.7,   11.4,   21.6,   22.2,  999.0,  999.0,    2.4,   -8.6,   10.6,    5.8,   15.6,    1.5,    2.1,   14.1,   -6.6,  -10.7,    7.5,   -0.1,    6.5,    0.9,   -4.2,  -15.9,    0.7,  999.0,    0.6,    0.8,    0.9,    0.0,    0.5,    1.0,   -3.8,    1.7,    3.4,   -6.7,    0.1,    9.4,    4.8,    0.8,    0.8,    1.0,    0.8,    0.9,    0.8,    0.3,    1.0,    0.7
2000/12/10 10:20,  999.0,  999.0,   14.8,    9.5,    9.0,   14.0,    7.4,   13.9,    7.6,   20.7,   22.8,   22.7,   22.7,   21.6,   21.2,   21.9,   20.6,   18.9,   15.4,   13.5,   11.0,    8.6,    5.7,    3.5,    3.8,    1.6,    0.7,    1.0,    0.9,    0.7,    0.7,    0.6,    0.8,    0.7,    0.5,    0.2,    0.7,    0.9,    1.1,    1.1,    1.0,    0.6,    1.0,    1.0,    1.2,    0.6,  999.0,    0.6,    0.8,    0.8,    0.3,    0.8,    0.7,    0.6,    0.8,    0.6,    0.2,    0.7
2000/12/10 10:30,  999.0,    2.9,   17.5,   17.5,   16.8,   15.8,   12.2,   18.1,   14.9,   18.5,   16.6,   18.6,   15.1,   20.9,   21.0,   20.4,   18.1,   15.7,    8.4,    4.5,    9.2,    0.4,    2.0,   -1.3,    4.1,    1.6,    0.6,    0.6,    1.4,    0.9,    0.8,    0.7,    0.5,    0.7,    0.5,    0.6,    1.0,    0.8,    0.8,    0.7,    0.8,    1.0,    1.4,   -2.4,   -3.3,    0.5,    0.6,    0.7,    0.8,    0.5,  999.0,    0.6,    0.6,    0.8,    1.1,    1.3,    0.7,    0.3
2000/12/10 10:40,  999.0,  999.0,   14.1,    7.3,   11.8,   14.0,   14.2,   16.1,   10.3,   20.8,   14.6,   17.4,   16.8,   15.7,   15.1,   12.5,   13.1,   17.9,   12.5,   14.7,    6.7,   11.7,    9.1,    4.5,    0.7,    0.6,    0.7,    0.5,    0.7,    0.3,    0.8,    0.8,    0.8,    0.2,    0.7,    0.7,    0.4,    0.8,    0.9,    0.7,    1.0,    0.6,    0.8,    0.5,    0.3,    1.3,    0.8,    0.7,    0.6,    0.5,    0.6,    0.3,    0.7,    0.8,    0.8,    1.1,    4.2,   10.8
2000/12/10 10:50,  999.0,    5.7,   14.8,    9.1,  999.0,    3.3,   15.2,   10.6,   21.2,   13.8,   16.5,   21.3,   18.2,   15.1,   14.6,   20.6,   19.1,   16.5,   15.0,   10.2,    6.2,    5.3,    1.3,    0.2,    0.6,    0.4,    0.6,    1.0,    0.9,    1.0,    0.6,    0.6,    0.5,    1.0,    1.0,    1.2,    0.9,    0.7,    0.8,    0.3,    0.8,    0.4,    0.8,    0.7,    0.5,    0.9,    0.7,    0.4,    0.8,    1.0,    0.7,    0.8,    0.8,    0.6,    0.5,    0.6,    0.8,    0.6
2000/12/10 11:00,  999.0,  999.0,  999.0,   12.8,   13.2,   19.4,   21.5,   14.2,   21.5,   19.1,   21.1,   23.5,   24.8,   25.7,   24.9,   13.0,   18.2,   17.1,   11.2,   10.1,   15.9,    7.4,    6.3,    4.1,    0.6,    0.8,    0.5,    0.8,    0.4,    0.4,    0.5,    0.9,    0.7,    0.8,    1.0,    1.0,    0.9,    0.5,    0.7,    0.9,    0.8,    0.7,    0.7,    0.7,   -1.8,    0.9,   -2.4,    0.7,    1.1,    0.9,    0.7,    0.6,   -6.1,    0.9,    1.1,    0.9,    1.2,    1.0
2000/12/10 11:10,  999.0,  999.0,   13.0,   10.0,    8.7,    7.4,    8.3,    7.5,    7.9,    7.7,    6.2,    5.2,    3.2,    3.7,    2.8,    2.9,    5.6,    5.7,    5.8,    5.1,  999.0,  999.0,    5.4,  999.0,   21.4,   12.5,   21.4,   23.5,  999.0,   12.2,   21.4,    0.7,   41.4,   21.1,    0.3,  -32.6,   16.8,  -35.7,   23.1,    1.0,   41.7,   11.2,  999.0,  -18.6,  999.0,  -41.2,   -0.1,   10.4,  999.0,   -0.1,  999.0,    0.6,  -42.0,   21.2,    0.8,    0.1,   27.8,   -1.7
2000/12/10 11:20,  999.0,    2.3,   -8.3,    6.3,    4.2,  -16.9,   -9.1,   11.2,  -27.7,  -11.7,   -5.0,   10.5,   20.7,  999.0,   21.2,   21.4,   21.1,   21.5,  999.0,  999.0,  999.0,  999.0,  999.0,  999.0,   16.3,  999.0,  999.0,   14.4,  999.0,   13.3,  999.0,   11.2,  999.0,   10.4,    9.9,  999.0,  999.0,    8.1,    7.3,  999.0,  999.0,  999.0,  999.0,    4.0,    3.2,  999.0,    2.0,    2.0,  999.0,  999.0,    0.6,    0.4,    1.0,    0.7,    0.3,    1.4,    1.0,  999.0
2000/12/10 11:30,  999.0,    5.8,    7.0,    7.0,    7.1,    8.0,   10.3,   12.4,   12.6,    7.9,    7.1,  999.0,  999.0,  999.0,   26.0,   35.5,  999.0,  999.0,  999.0,  999.0,  999.0,  999.0,  999.0,    7.1,   25.5,   28.3,  999.0,  999.0,  999.0,   -0.8,  999.0,   -1.3,   41.7,   20.7,  -31.6,   11.5,    9.0,  -21.8,   -4.5,   20.9,  -31.4,  999.0,   -2.7,   -8.0,  999.0,  -11.6,   -4.7,    2.8,   -1.5,   -0.9,   -0.5,   -0.2,   -0.8,    0.3,    0.1,  -21.2,   -0.2,   -0.9
2000/12/10 11:40,  999.0,    5.5,    5.3,    6.6,    7.1,    7.4,    7.2,    7.0,    8.2,   12.8,   11.0,   10.8,  999.0,   27.3,   41.4,   41.5,   41.6,   41.8,   41.5,  999.0,  999.0,  999.0,  999.0,  999.0,  999.0,  999.0,   27.7,  999.0,  -39.4,  999.0,  -17.9,   41.3,   16.2,    5.7,   35.7,   10.0,    9.1,   25.4,  999.0,  999.0,  999.0,  999.0,   24.3,   24.3,   25.8,  999.0,   35.6,   34.8,  999.0,   25.2,   27.8,    6.8,   11.9,   -1.6,    0.2,   -3.0,   -3.1,  -17.2
2000/12/10 11:50,  999.0,    3.2,    4.3,    5.7,    6.5,    6.8,    7.3,    8.9,    9.0,    9.6,    9.1,    8.8,    8.3,    8.3,  999.0,   31.4,   30.1,   41.6,   41.9,  999.0,   41.6,   38.1,   18.4,   22.1,    1.0,    0.2,  999.0,  999.0,   14.1,   24.1,   34.7,   32.3,   27.6,   23.3,    3.8,   36.0,   25.7,   14.0,    8.7,   12.7,   20.9,   11.4,    0.6,   21.4,   19.2,   14.2,    0.9,    9.6,   26.0,    4.9,   14.8,   18.2,    3.5,  -21.4,  999.0,  -11.3,  -21.3,  999.0
2000/12/10 12:00,  999.0,    3.1,    3.3,    4.8,    5.1,    6.1,    6.8,    7.1,    8.1,    9.0,    6.6,    6.8,    7.2,    9.6,    9.4,   21.7,   19.6,  999.0,   15.7,   12.2,    9.3,    6.8,    3.6,    1.1,    0.8,   13.4,    0.5,   29.0,   15.8,   11.3,   11.6,   17.6,   18.2,    0.6,   19.8,   13.8,   18.6,   21.3,   41.8,   21.1,   41.3,   21.1,   27.7,  999.0,  999.0,  999.0,  999.0,  999.0,  999.0,  999.0,  999.0,  999.0,  999.0,  999.0,  -41.9,  -21.0,  -21.0,  -30.6
2000/12/10 12:10,  999.0,    3.3,    6.0,    3.7,    5.4,    4.8,    5.9,    6.9,    6.2,    5.9,    5.2,    4.9,    6.2,    6.6,   11.1,   14.7,   16.0,   13.0,    7.5,    4.9,  999.0,    1.5,    0.7,    0.5,    0.8,    0.6,    0.8,    0.7,    0.8,    0.7,    0.5,    0.8,    0.5,    0.7,    0.9,    0.7,    0.4,    0.5,    0.5,    0.6,   -2.7,   -9.1,  -12.7,  -12.3,   -5.9,    1.1,    1.0,    0.9,    0.8,  999.0,    0.6,  -21.0,  -41.6,  -41.6,  -42.1,  -41.8,  -42.0,  -41.8
2000/12/10 12:20,  999.0,    0.6,    0.5,    0.7,    0.3,    0.6,    4.9,    5.9,    3.3,    4.5,    5.8,    7.5,    8.4,    8.6,   10.7,   15.4,   21.5,   18.7,   12.8,   16.3,   13.4,   15.7,   10.4,   11.7,   15.8,    7.0,    2.1,    2.5,    1.5,    1.8,    1.7,    2.1,    4.9,    5.2,    9.5,   13.6,   11.2,    0.8,   41.5,   14.6,    0.7,   42.0,   41.5,   15.1,   41.5,    0.3,  999.0,   41.8,   21.3,   41.6,    9.4,   21.3,   21.2,    0.6,  999.0,  999.0,  999.0,  999.0
2000/12/10 12:30,  999.0,   -0.1,   -0.0,    0.3,    1.1,    2.6,    2.5,    4.7,    3.3,    5.0,    3.4,    5.7,    7.8,    3.7,    9.3,    3.1,    1.3,    4.9,    9.6,    4.7,   10.6,    6.8,   11.8,   10.4,   10.4,   12.6,   13.5,   12.6,   14.1,   18.0,   21.0,   21.5,   22.1,    9.8,   29.2,   29.6,   29.8,   23.9,    5.9,   23.2,   30.8,   25.3,   28.2,   37.4,   13.3,    8.2,   19.4,   15.0,   12.8,    6.4,    5.8,   22.5,   25.0,   10.1,    0.7,    1.0,   11.2,  -10.5
2000/12/10 12:40,  999.0,    8.7,    0.2,    0.3,    1.3,    0.7,    2.0,    1.8,    2.7,    5.6,    7.0,    5.2,    3.2,    4.5,    7.3,    5.8,    5.9,    4.9,    2.7,    3.3,    6.1,    7.5,    6.7,    7.1,    9.1,    9.9,   12.1,   17.7,   19.5,   22.0,   33.8,   32.1,  999.0,   36.9,   22.8,   41.8,   30.2,   31.1,   25.2,   32.8,   24.0,   29.9,   31.6,   11.6,   10.5,   -0.2,   15.3,   20.6,   12.1,   17.4,    1.7,    0.1,  -20.8,    0.3,   11.0,  -20.6,  -41.3,    0.7
2000/12/10 12:50,   18.5,   10.7,    9.6,    7.5,    5.7,    6.6,    7.9,    9.9,   10.4,    9.8,   10.9,   10.9,    7.6,    9.3,    9.4,    7.3,    7.2,    6.8,    6.8,    6.6,    6.7,    7.1,    7.0,    7.5,    7.5,    7.3,    7.0,    8.2,    3.9,    5.8,    5.2,    8.8,    4.9,    9.2,   10.2,    9.7,    3.7,    5.5,    7.3,    9.3,   10.9,   11.0,    9.4,    9.0,    8.3,    7.3,   25.0,   18.3,   24.3,   41.6,   41.4,   41.9,   41.9,   41.8,   41.3,   41.4,   41.7,   41.6
2000/12/10 13:00,  999.0,    3.7,    0.3,    6.2,    8.9,    8.4,    5.3,    4.2,   10.8,   10.3,    5.5,    6.7,    6.1,    5.7,    0.4,    2.7,    2.0,    2.0,    0.6,    0.0,   21.6,   22.2,   12.0,  999.0,   21.4,   14.1,   11.2,    1.9,    3.2,   19.4,   10.0,   10.3,   10.1,    2.3,    8.3,    7.4,    3.9,    8.5,    6.2,    5.6,    5.1,   -2.8,   -2.5,    4.5,    4.0,    1.3,   -8.3,  999.0,    8.2,    6.0,   -2.0,   -0.1,   12.2,  999.0,  999.0,  999.0,  999.0,   -0.4
2000/12/10 13:10,  999.0,  999.0,   10.6,   13.8,   13.0,   11.1,    2.8,   14.3,   14.2,   11.8,    5.7,    4.7,    4.9,    3.8,    4.7,    7.9,  999.0,  999.0,  999.0,  999.0,  999.0,  999.0,  999.0,  999.0,  999.0,  -19.8,   -0.8,  -20.3,   20.2,   42.2,   10.5,   41.3,    4.0,  -41.8,   42.2,   -0.3,    0.4,  999.0,   41.5,  999.0,   42.1,  999.0,   41.9,   35.3,   32.6,   32.6,  999.0,   42.2,  999.0,   41.6,   41.2,   41.7,   41.4,   41.8,   41.7,   41.7,   41.8,   41.8
2000/12/10 13:20,  999.0,  999.0,  999.0,  999.0,   12.1,   10.4,    5.7,    5.9,    6.5,    6.5,    6.4,    7.2,    7.3,    7.6,    8.3,  999.0,  999.0,  999.0,   32.5,   33.9,   36.5,   39.7,   41.3,   42.0,   41.9,   42.4,   41.5,   41.6,   41.7,   41.6,   41.4,   41.9,   41.8,   42.2,   42.0,   42.0,   41.9,   41.6,   41.6,   41.7,   41.5,   41.4,  999.0,   30.4,   36.3,   29.5,   42.0,   42.2,   42.0,   42.1,   41.6,   42.0,   42.6,   42.1,   41.6,   42.2,   42.3,   42.2
2000/12/10 13:30,  -14.6,   -8.2,    6.7,   11.0,    6.1,   10.3,    3.9,    2.2,   -2.5,    6.8,    6.2,    8.8,    8.6,    8.7,    2.1,  999.0,  999.0,    1.2,    1.2,    0.8,  999.0,   42.1,   41.8,   41.6,   41.1,   21.8,  999.0,   42.0,  999.0,   21.5,   42.2,   42.3,   41.8,   41.5,   41.9,   39.8,   42.1,   30.7,   42.0,   41.8,   27.1,   41.8,   42.3,   21.4,   41.4,  999.0,   41.7,   42.3,   41.9,   41.9,   41.7,   41.8,   42.1,   27.3,   41.3,  999.0,   42.5,   34.7
2000/12/10 13:40,   -8.6,   -6.6,   -1.3,    4.2,    7.3,   10.8,  999.0,    3.2,    6.0,   14.1,  999.0,   17.5,   14.2,  999.0,   28.4,   29.8,  999.0,   36.6,   36.8,   37.6,   39.1,   40.4,   39.9,   40.9,   41.8,   41.7,   42.3,  999.0,   41.7,   42.1,   41.3,   41.8,   41.0,   41.9,   41.8,   41.9,   42.0,   42.4,   41.6,   41.7,   41.9,   42.0,   42.3,   42.4,   42.2,   41.9,   42.2,   42.0,   41.8,   41.4,   41.7,  999.0,   41.7,   41.9,   42.1,   41.6,   42.1,   41.6
2000/12/10 13:50,   -8.7,   -5.3,   -0.0,    3.8,    8.2,   10.1,   11.0,    9.0,    7.8,    8.2,   21.5,   21.5,   21.0,   21.9,   23.7,   27.1,   28.2,   29.1,   31.1,   34.6,   37.4,  999.0,   39.8,   41.0,   41.6,   41.9,   41.9,   41.9,   42.2,   42.0,   42.0,   41.9,   41.7,   42.7,   41.7,   42.0,   41.6,   42.0,   42.1,   42.2,   42.0,   41.5,   41.7,   41.5,  999.0,   41.6,   42.1,   41.7,   42.3,   42.0,   41.7,   41.9,   41.3,   42.3,   41.9,   42.0,   42.0,   41.8
2000/12/10 14:00,   -6.3,   -0.9,    6.6,    7.3,    8.7,    9.8,   10.9,   11.9,   14.8,    9.6,   21.5,   21.8,   22.6,  999.0,   38.1,   25.2,   42.3,   37.3,    5.2,   17.0,  999.0,   41.3,   30.6,   20.7,   41.7,   41.8,   41.8,   41.5,   41.7,   41.7,   41.4,   42.0,   41.6,   41.7,   40.4,   40.8,   41.7,   41.7,   41.7,  999.0,   11.6,   41.7,  999.0,    3.7,   25.3,   27.5,   29.6,   31.2,   20.5,   42.0,   42.1,  999.0,   20.7,   -1.3,   41.6,   14.0,  -42.1,    4.6
2000/12/10 14:10,  -15.9,  -10.8,   -1.2,    3.1,    9.5,    9.5,    9.5,    9.5,   10.3,   10.2,   18.1,  999.0,   21.6,   21.9,   25.1,   24.8,   25.0,   25.8,   29.8,   30.3,   25.7,   34.7,  999.0,   38.3,   39.2,   41.3,   41.7,   41.4,   42.0,   32.7,   41.6,   42.3,   31.1,   42.2,   22.7,   35.5,   34.7,   41.6,   40.8,   33.2,   34.8,   41.6,   34.6,   22.9,   35.4,   36.0,   24.2,   28.0,   41.7,   41.1,  999.0,   20.8,   42.2,   29.2,   21.0,   32.1,  999.0,   42.0
2000/12/10 14:20,  999.0,  999.0,    5.2,    6.8,    3.6,    8.2,    5.0,    5.6,    7.0,    7.7,    8.8,   15.1,   18.0,   29.0,   29.4,   21.4,   23.8,   28.5,  999.0,   33.8,   34.7,  999.0,   36.0,   37.7,   36.9,   39.4,   41.0,  999.0,   41.9,   40.3,   40.8,   42.0,   38.9,   37.8,   33.8,   34.2,   32.4,   28.6,   24.7,   27.5,   22.7,   20.1,   19.6,   16.8,   11.7,    0.1,  999.0,    9.4,  999.0,  999.0,  999.0,  -13.9,  -15.2,  999.0,  999.0,  -41.4,  -41.6,  -42.3
2000/12/10 14:30,    5.4,  999.0,   15.4,   21.1,  999.0,   12.5,   14.3,  999.0,   21.0,   20.6,   20.2,   20.8,   21.2,   22.1,   22.0,   21.2,   23.6,   25.4,   27.8,   29.4,   31.0,   32.7,   34.5,   35.6,   38.6,   38.8,   39.9,   41.5,   41.8,   41.7,   42.1,   41.8,   41.6,   39.9,   37.2,   35.1,   33.3,   31.8,  999.0,   27.9,  999.0,  999.0,    8.0,    6.4,  999.0,  999.0,  999.0,  999.0,  999.0,  999.0,  999.0,  999.0,  999.0,  999.0,  999.0,  -42.3,  -42.0,  -41.8
2000/12/10 14:40,    2.7,  999.0,  999.0,  999.0,  999.0,  999.0,  999.0,  999.0,   20.8,   20.9,   21.2,   21.5,   20.9,   21.5,   21.4,   22.7,   25.1,   27.6,   30.5,   32.3,   36.4,   38.6,  999.0,   41.4,   41.9,   41.0,   41.7,   41.8,   42.6,   42.5,   41.3,   39.9,   37.4,   36.8,   37.6,   36.1,   30.9,   31.9,  999.0,  999.0,  999.0,  999.0,    7.1,    4.8,  999.0,  999.0,  999.0,  999.0,  999.0,  999.0,  999.0,  999.0,  999.0,  999.0,  -42.0,  -39.1,  -41.9,  -41.9
2000/12/10 14:50,    0.7,    2.4,  999.0,    6.9,    8.3,   10.0,    8.6,    9.6,   12.9,   21.9,   21.1,   20.7,   21.2,   20.4,   23.8,   -1.4,   27.4,   -0.2,   33.6,   -1.3,   12.7,   13.6,   41.6,   41.2,  -42.3,   41.7,   -0.2,    9.7,   14.9,   20.2,   11.1,   10.0,   20.1,   39.3,   -3.6,   35.6,   34.4,  999.0,  999.0,  999.0,  999.0,  999.0,  999.0,  999.0,  999.0,  999.0,  999.0,   22.3,  999.0,  999.0,  -34.2,  999.0,  999.0,  -38.0,   -0.8,  999.0,  -32.6,  -34.6
2000/12/10 15:00,    0.6,  999.0,    6.7,  999.0,   10.9,   13.5,   16.5,   19.8,   21.4,   22.3,  999.0,   21.3,   21.3,   22.6,   24.5,   25.6,   28.7,   30.3,   32.9,   34.5,   34.5,   39.0,   40.0,   41.0,   41.4,   41.9,   42.0,   41.4,   41.6,   41.8,   41.6,   41.9,   39.9,   37.5,   36.5,   34.4,   32.5,   30.4,  999.0,  999.0,   19.4,  999.0,  999.0,  999.0,  999.0,    0.8,   -0.9,  999.0,  999.0,  999.0,  999.0,  999.0,  999.0,  999.0,  999.0,  -41.6,  -41.9,  -42.0
2000/12/10 15:10,    1.4,  999.0,    6.6,    9.0,  999.0,  999.0,  999.0,   20.3,   21.4,   19.9,   19.6,   20.1,   20.7,   20.9,   21.2,   21.4,   22.9,   26.4,   28.8,   30.5,   33.0,   36.3,   42.0,   40.3,   41.3,   41.5,   41.3,   41.9,   41.8,   42.0,   41.7,   41.6,   40.1,   38.3,   38.0,   34.9,   33.1,   30.9,   28.2,  999.0,  999.0,  999.0,  999.0,  999.0,  999.0,   -1.1,  999.0,  999.0,  999.0,  999.0,  999.0,  999.0,  999.0,  999.0,  999.0,  -41.6,  -41.7,  -41.7
2000/12/10 15:20,    0.6,  999.0,  999.0,  999.0,  999.0,  999.0,   19.9,  999.0,   20.6,  999.0,   21.1,   20.6,   21.0,   20.4,   20.4,   21.5,   24.0,   26.1,   29.0,   30.9,   33.2,   35.8,   37.5,   40.0,   42.0,   41.9,   42.5,   41.7,   41.9,   42.1,   41.7,   41.6,   42.2,   41.2,   39.9,   39.8,  999.0,  999.0,  999.0,  999.0,  999.0,  999.0,  999.0,    8.5,  999.0,  999.0,  999.0,  999.0,  999.0,  999.0,  999.0,  999.0,  999.0,  999.0,  999.0,  999.0,  -41.7,  -42.2
2000/12/10 15:30,    3.8,  999.0,  999.0,  999.0,  999.0,  999.0,   20.9,   20.3,   20.4,   20.9,   20.8,   20.7,   20.7,   21.0,   20.8,   21.8,   24.1,   26.8,   28.2,   31.4,   33.9,   35.5,   38.0,   40.4,   41.4,   41.8,   41.4,   41.7,   41.6,   41.1,   42.0,   41.7,   41.4,   41.4,   38.3,   39.2,   34.4,   32.7,   30.9,  999.0,  999.0,  999.0,  999.0,  999.0,  999.0,    5.0,  999.0,  999.0,  999.0,  999.0,  999.0,  999.0,  999.0,  999.0,  -41.6,  999.0,  -41.7,  -42.1
2000/12/10 15:40,    3.8,  999.0,  999.0,  999.0,  999.0,  999.0,  999.0,   20.8,   20.9,   21.3,   21.7,   21.0,   20.8,   20.4,   20.9,   22.0,   24.8,   27.6,   30.3,   33.0,   36.0,   39.2,   41.3,   41.9,   41.6,   41.9,   41.5,   42.0,   41.8,   41.7,   41.9,   41.5,   41.8,   41.6,   41.9,   40.2,  999.0,  999.0,  999.0,  999.0,  999.0,  999.0,  999.0,  999.0,  999.0,  999.0,  999.0,  999.0,  999.0,  999.0,  999.0,  999.0,  999.0,  999.0,  -42.3,  -41.8,  -41.8,  -42.0
2000/12/10 15:50,  999.0,  999.0,  999.0,  999.0,  999.0,  999.0,   20.8,  999.0,   21.1,   21.3,   21.4,   21.0,   22.0,   24.0,   24.8,   26.7,   29.3,   30.8,   34.6,   34.7,   38.8,   38.9,   41.0,   42.3,   42.1,   41.8,   41.2,   42.0,   42.4,   41.7,   41.7,   42.1,   41.4,   41.8,   42.1,   40.6,   37.6,   36.7,   35.3,  999.0,  999.0,  999.0,  999.0,    9.2,  999.0,  999.0,  999.0,  999.0,  999.0,  999.0,  999.0,  999.0,  999.0,  999.0,  999.0,  -42.3,  -42.5,  -42.1
2000/12/10 16:00,    3.4,  999.0,   18.0,    8.5,   10.0,   11.2,   21.3,   16.1,   17.2,   18.9,   17.6,   18.1,   16.9,   21.2,   21.4,   23.4,   27.3,   29.4,   32.3,   36.4,   38.5,   41.9,   41.6,   41.5,   41.3,  999.0,   41.9,   42.0,   41.4,   41.7,   41.5,   42.2,   41.9,   41.3,   41.1,   41.4,   41.3,  999.0,  999.0,  999.0,  999.0,  999.0,  999.0,  999.0,  999.0,  999.0,  999.0,  999.0,  999.0,  999.0,  999.0,  999.0,  999.0,  999.0,  -35.8,  999.0,  -39.5,  -41.4
2000/12/10 16:10,    6.0,  999.0,  999.0,  999.0,  999.0,   19.1,   20.8,  999.0,  999.0,   20.4,   20.2,   21.0,   20.8,   20.8,   21.1,   22.0,   24.3,   26.4,   29.0,   31.2,   33.6,   37.2,   37.8,   40.6,   41.2,   42.1,   42.3,   42.2,   41.9,   41.8,   41.9,   42.0,   42.1,   41.7,   41.9,   41.8,   42.1,   42.1,   41.8,   40.2,  999.0,  999.0,  999.0,  999.0,   12.0,    9.9,  999.0,  999.0,  999.0,  999.0,  999.0,  999.0,  999.0,  999.0,  999.0,  -42.3,  999.0,  -41.8
2000/12/10 16:20,  999.0,    8.2,    8.6,   11.8,   13.0,  999.0,   11.1,   16.9,   12.0,   11.9,   11.2,    9.5,   14.9,   14.7,   16.1,   24.9,   27.3,   32.0,   38.2,   35.0,  999.0,   39.5,   40.3,   42.2,  999.0,  999.0,   21.0,   -0.3,   -1.1,   14.0,   20.5,  999.0,   20.8,  999.0,  999.0,   20.8,    9.9,   10.2,   -0.6,   14.5,   -0.5,  999.0,   -1.0,   -0.4,   -0.3,   -1.2,  999.0,   -0.8,   -1.0,   -9.6,   -8.5,  -15.8,  -18.6,  -14.9,  -17.0,  999.0,  -42.0,  -42.1
2000/12/10 16:30,  999.0,  999.0,    7.4,    6.5,   -0.2,    4.7,   11.2,   10.0,  999.0,    9.1,    9.3,   13.3,   13.3,  999.0,  999.0,   22.9,   24.7,   20.7,  999.0,   25.8,   35.4,  999.0,   33.3,   30.4,   42.7,  999.0,  999.0,   42.4,  999.0,   41.3,  999.0,   41.7,  -42.2,   41.3,    0.3,   41.5,   -0.2,   -0.6,   -0.7,   -5.2,    9.9,   -0.7,    9.6,   10.0,   18.9,   20.8,   21.4,   10.4,    6.3,   10.3,   -0.5,   20.9,   13.5,   -0.7,   21.3,   -0.5,   -0.1,   10.3
2000/12/10 16:40,    9.7,  999.0,   12.1,    0.9,    1.1,   11.0,   11.5,    4.4,   10.5,    9.9,    5.3,    8.3,    8.4,    8.5,    8.3,    8.0,  999.0,  999.0,   15.8,   14.1,   12.4,    6.5,    1.1,   18.3,   31.2,  -19.8,   14.3,    7.5,   15.6,  -11.4,   35.6,   27.7,   16.7,   23.3,    0.2,   13.9,   41.5,    7.9,   41.8,    1.7,   38.6,    0.2,   21.5,    0.5,   18.5,   42.3,   21.3,   21.4,   16.6,   29.0,    4.8,   22.1,   28.3,    0.8,   15.2,   21.4,    1.1,    0.4
2000/12/10 16:50,    9.9,  999.0,  999.0,   10.7,   -0.2,   -1.0,   -0.3,    7.4,    8.4,    8.9,    8.4,    7.1,    7.9,    8.3,    8.4,   13.6,  999.0,  999.0,  999.0,   33.1,   41.7,   37.8,   39.7,   40.0,   40.2,   40.6,   41.9,   42.0,   41.5,   41.5,   41.7,   41.7,   41.7,   42.0,   41.7,   41.7,   37.2,   25.1,   41.6,   42.3,   41.9,   31.7,   41.8,   34.2,   42.3,   36.7,   32.6,   39.1,   35.2,   21.4,   25.2,   38.8,   31.2,   25.5,   41.5,   35.6,   34.8,   32.6
2000/12/10 17:00,    2.2,  999.0,   21.6,    6.4,    5.4,    8.8,    5.8,    9.6,    8.3,    7.0,    7.7,    8.6,    8.6,    9.3,   11.7,  999.0,  999.0,   26.4,   27.6,    7.7,   32.2,   33.1,   36.4,   37.7,   39.9,   41.9,   41.5,   34.5,   41.2,   41.6,   41.7,   33.9,   28.8,   41.4,   41.5,   41.9,   41.7,  999.0,   35.9,   41.7,   41.6,   41.6,   41.5,   41.8,   41.4,   41.1,   41.9,   41.6,   41.3,   41.5,   41.9,   41.9,   41.8,   39.8,   19.9,   28.1,   27.9,   41.4
2000/12/10 17:10,  999.0,  999.0,  999.0,  999.0,    7.8,   -1.6,    9.4,    8.7,    8.4,    7.0,    5.0,    6.7,    9.1,    8.7,    4.4,    8.9,   15.0,   17.4,  999.0,   32.0,   35.9,   39.4,   42.3,   41.9,   41.3,   41.9,   42.2,   41.9,   42.1,   41.6,   41.5,   41.8,   42.2,   42.6,   42.2,   42.1,   42.1,   42.2,   41.9,   42.0,   42.0,   41.7,   41.8,   42.1,   42.2,   41.9,   41.7,   42.0,   41.9,   41.8,   41.9,   42.0,   41.6,   41.8,   41.4,   41.7,   42.2,   42.1
2000/12/10 17:20,   -1.4,  999.0,   -0.3,    0.9,    0.3,    0.3,    0.1,    0.1,    6.8,    6.5,    7.0,    7.9,    9.3,   10.7,   10.4,    9.4,    8.0,    5.4,   22.6,   25.5,   26.5,   30.6,   34.1,   37.1,   40.1,   41.8,   41.6,   41.7,   41.7,   41.7,   41.1,   42.0,   34.6,   31.0,   21.2,   20.3,   20.2,   31.1,   31.3,   41.5,   41.5,   41.8,   27.3,   42.2,   34.7,   20.5,   34.7,   31.3,   41.9,   31.4,   31.3,   20.4,   42.3,   21.0,   -1.3,   41.6,  999.0,   41.7
2000/12/10 17:30,  999.0,  999.0,  999.0,    0.1,   -1.7,    5.0,    7.8,    4.7,    4.7,  999.0,  999.0,    9.2,    9.3,    9.2,    9.6,    9.2,  999.0,  999.0,   24.9,   30.4,  999.0,   30.4,   32.7,   34.2,   37.7,   38.5,   40.5,  999.0,   41.3,   41.1,   41.5,  999.0,   42.0,   42.1,  999.0,   42.1,   42.0,   42.2,   41.8,   41.4,   41.4,   41.5,   41.5,   41.7,   41.6,   41.8,   42.0,   41.8,   41.9,   41.1,   42.0,   42.8,   42.2,   41.9,   42.1,   41.7,   41.8,  999.0
2000/12/10 17:40,  999.0,  999.0,  999.0,    7.7,    8.6,    7.1,   10.6,    9.4,  999.0,  999.0,  999.0,  999.0,    9.9,  999.0,   10.9,  999.0,   21.5,   21.6,   22.8,   23.4,   26.0,   25.9,   28.8,   28.8,   31.7,   33.9,   36.1,   37.6,   39.8,   40.3,   41.3,   41.9,   41.9,   41.8,   41.2,   41.8,   41.8,   42.0,   41.3,   42.5,   42.2,   41.5,   42.0,   42.1,   42.1,   41.7,  999.0,   42.0,   41.3,   42.7,   41.4,   41.8,   42.3,   42.5,   41.9,   42.1,   41.9,   42.3
2000/12/10 17:50,    5.3,  999.0,  999.0,  999.0,    9.9,    8.4,    8.4,    8.4,  999.0,  999.0,  999.0,   14.2,   20.7,   20.4,   20.4,   21.3,   21.6,   24.3,   24.5,   26.3,   28.4,   30.1,   32.8,   35.3,   37.5,   39.3,   43.3,  999.0,   41.9,   41.9,  999.0,   41.9,   41.9,   41.5,   41.7,   42.1,   41.6,   41.6,   41.1,   41.5,   41.8,   41.4,   41.8,  999.0,   41.7,  999.0,  999.0,  999.0,  999.0,  999.0,  999.0,  999.0,  999.0,   41.4,  999.0,  999.0,   41.7,   41.6
2000/12/10 18:00,  999.0,   10.1,    8.3,    1.2,    8.8,    4.9,    7.6,   -0.2,  999.0,   21.4,   10.8,   20.7,   20.8,  999.0,   21.1,  999.0,  999.0,   23.3,   23.9,   26.0,  999.0,   27.5,   27.8,   25.5,   32.1,   33.4,   31.6,   36.4,   33.0,   38.0,  999.0,   37.3,   36.0,  999.0,   38.0,   32.4,  999.0,   38.5,   38.1,   41.1,   41.5,  999.0,   41.9,   36.1,   42.0,   39.7,  999.0,   39.1,   40.8,   41.0,   41.0,   42.0,  999.0,   41.8,   41.3,   41.2,  999.0,  999.0
2000/12/10 18:10,  999.0,  999.0,    8.4,    9.7,    6.7,    7.6,    7.7,    7.6,    6.9,  999.0,    8.9,  999.0,   20.6,   21.1,   21.1,   20.9,   19.7,   20.0,   21.4,   23.0,   23.0,   24.4,   25.6,   27.0,   29.4,   28.9,   30.7,   30.8,  999.0,   34.4,  999.0,   34.9,   38.1,   37.2,   39.4,   39.8,   41.3,   41.6,   41.8,   41.4,   42.3,   42.0,   42.1,   42.6,   42.2,   42.2,   41.8,   41.8,   42.0,  999.0,   41.4,   41.7,   41.7,   41.3,   41.5,   41.7,   42.1,   41.8
2000/12/10 18:20,    1.4,  999.0,    9.3,    7.9,  999.0,    6.2,    7.5,    5.5,    5.8,  999.0,  999.0,  999.0,    5.1,    4.5,  999.0,  999.0,   20.3,   22.9,   23.7,   25.1,   26.1,  999.0,   26.6,   28.4,  999.0,   30.2,   30.1,   32.2,   35.7,   35.2,  999.0,   37.9,   38.1,   40.5,   39.0,   40.6,   41.9,   40.3,   41.0,   41.0,   41.4,   42.3,   41.7,   41.8,   41.6,   42.2,   42.2,   41.9,   41.7,  999.0,  999.0,   41.9,   42.0,   41.3,   41.9,   41.8,  999.0,   42.0
2000/12/10 18:30,  -10.0,  999.0,  999.0,    1.1,    1.1,    4.0,    4.3,    3.4,    0.2,   -0.3,    0.0,    2.5,  999.0,    4.0,    1.8,   11.3,    6.9,   14.3,    7.6,   25.0,   24.4,   26.7,   26.4,  999.0,  999.0,  999.0,   29.8,   32.4,  999.0,   34.2,   35.1,   36.6,   37.0,   38.0,  999.0,   40.9,  999.0,   41.5,   43.1,   41.8,   41.5,   42.2,   42.0,  999.0,   41.6,   41.5,  999.0,   41.7,   42.1,  999.0,   41.9,   41.4,   41.9,   20.7,   -0.5,  999.0,   41.3,  999.0
2000/12/10 18:40,    9.4,   10.0,   10.3,    0.4,    1.1,    2.3,    1.6,    0.9,    1.5,    3.6,    3.2,    2.5,    3.6,    3.1,    4.4,    4.8,    4.3,    4.3,    5.4,    6.2,    5.4,    4.0,    1.6,   -8.9,  -10.4,  999.0,  -15.9,  999.0,  999.0,  999.0,  999.0,  999.0,  999.0,  999.0,  999.0,  999.0,  999.0,  999.0,  999.0,  999.0,  999.0,  999.0,  999.0,  999.0,  999.0,  999.0,  999.0,  999.0,  999.0,  999.0,  -42.1,  999.0,  999.0,  999.0,  999.0,  999.0,  -42.0,  999.0
2000/12/10 18:50,    4.7,   -0.1,    1.2,    3.1,    3.6,    2.3,    0.7,    2.4,    2.4,    4.1,    7.1,    6.6,    4.7,    4.4,    4.8,    6.4,    9.7,    8.7,   -0.3,    3.2,    5.8,    4.4,    7.7,  999.0,  999.0,  999.0,  999.0,  999.0,  999.0,  999.0,  999.0,  999.0,  999.0,  999.0,  999.0,  999.0,  999.0,  999.0,  999.0,  999.0,  999.0,  999.0,  999.0,   -0.1,   -0.6,   -0.1,   -0.0,   -0.6,   -0.7,   -0.9,   -1.0,   -0.9,   -1.7,   -0.9,   -0.6,   -0.3,   -0.4,   -0.8
2000/12/10 19:00,   -0.5,    7.0,    6.8,    4.2,    5.5,    5.4,    5.4,    6.2,    6.1,    8.8,    8.0,    3.7,    6.5,    4.8,    5.0,    6.0,    3.1,    2.2,    2.6,    3.7,    3.4,    3.4,    3.9,    3.8,  999.0,  999.0,  999.0,  999.0,  999.0,  999.0,  999.0,  999.0,   22.7,   25.3,  999.0,   27.5,  999.0,  999.0,  999.0,  999.0,  999.0,  999.0,  999.0,  999.0,  999.0,  999.0,   -0.5,  999.0,   -0.7,   -1.1,  999.0,  999.0,   -0.3,   -1.0,   -0.7,   -1.1,  999.0,  999.0
2000/12/10 19:10,  999.0,    4.2,    5.3,    6.4,    5.9,    6.1,    7.2,    7.8,    8.4,    9.8,    5.6,    8.1,    8.9,  999.0,    0.8,    2.2,    3.7,    5.9,    3.7,    5.4,    5.1,    3.3,    4.4,    0.6,    4.5,    3.2,    5.1,    3.8,    2.8,    0.8,    2.7,    2.3,    3.4,    6.9,  999.0,   -0.8,    6.9,  999.0,  999.0,  999.0,  999.0,  999.0,  999.0,  999.0,  999.0,  999.0,  999.0,  999.0,  999.0,  999.0,  999.0,   -1.2,   -1.6,  999.0,  999.0,  999.0,  999.0,  999.0
2000/12/10 19:20,  999.0,    6.7,    6.8,    6.1,    7.2,    7.6,    8.2,    9.2,    9.5,    9.6,    7.5,    7.9,    9.3,    9.2,    8.9,    8.5,    7.9,    7.7,    7.0,    6.9,    6.3,    5.9,    5.5,    5.6,    2.3,    2.2,    1.7,    1.1,    1.0,    1.3,    3.6,    3.5,  999.0,  999.0,  999.0,  999.0,  -25.4,  -25.6,  999.0,  999.0,  999.0,  -30.0,  999.0,  -32.3,  -33.0,  999.0,  -35.8,  -37.2,  -38.2,  999.0,  999.0,  999.0,  999.0,  -41.7,  -41.6,  999.0,  -42.2,  -42.0
2000/12/10 19:30,  999.0,    6.7,    6.6,    0.9,   -0.4,    4.9,    4.2,    5.0,    6.9,    9.9,   10.1,    9.8,    6.1,    9.5,    7.8,    7.9,    8.3,    8.1,    8.5,  999.0,    9.7,    7.8,    5.3,    4.5,    2.1,  999.0,  999.0,    3.0,    3.6,    4.0,    4.8,    5.3,    6.4,   -5.0,  999.0,  999.0,  999.0,  999.0,  999.0,  999.0,  999.0,  999.0,  999.0,  999.0,  999.0,  999.0,  999.0,  999.0,  999.0,  999.0,  999.0,  999.0,  -18.5,  999.0,  999.0,  999.0,  999.0,  -16.8
2000/12/10 19:40,  999.0,    4.2,    1.9,    3.4,    2.7,   -0.8,    3.3,    7.9,    8.6,    9.3,    9.9,   10.3,  999.0,    8.2,    4.8,  999.0,  999.0,  999.0,  999.0,  999.0,    6.1,    6.1,    8.8,    7.9,    3.5,    2.2,   -0.0,    4.8,   -0.6,    3.7,    8.1,   10.2,    8.6,  999.0,  999.0,  999.0,  999.0,  999.0,  999.0,  999.0,  999.0,  999.0,  999.0,  999.0,  999.0,  999.0,  999.0,  999.0,  999.0,  999.0,  999.0,  999.0,  999.0,  999.0,  999.0,  999.0,  999.0,  999.0
2000/12/10 19:50,  999.0,    4.4,    5.1,    4.0,    9.2,    6.3,    5.6,    8.8,    9.6,   10.2,    8.9,   12.2,  999.0,   13.2,  999.0,  999.0,  999.0,  999.0,  999.0,  999.0,  999.0,  999.0,  999.0,  999.0,    4.1,  999.0,  999.0,  999.0,  999.0,   20.8,  999.0,    4.8,  999.0,  999.0,  999.0,  999.0,  999.0,  999.0,  999.0,  999.0,  999.0,  999.0,  999.0,  999.0,  999.0,  999.0,  999.0,  999.0,  999.0,  999.0,  999.0,  999.0,  999.0,  999.0,  999.0,  999.0,  999.0,  999.0
2000/12/10 20:00,  999.0,    4.8,    5.7,    5.0,    4.8,    5.0,    9.5,    8.7,   12.6,   10.1,   10.3,   10.6,    8.4,    9.5,    8.8,    8.9,  999.0,  999.0,  999.0,  999.0,   -7.9,  999.0,  999.0,  999.0,   -3.0,    1.5,   21.1,    5.3,  999.0,   21.4,  999.0,   20.9,   21.4,  999.0,  999.0,   21.1,   20.7,  999.0,  999.0,  999.0,  999.0,  999.0,  999.0,  999.0,  999.0,  -12.2,  -11.0,  999.0,   -0.4,  -11.4,  999.0,  999.0,  999.0,  999.0,  999.0,  999.0,  999.0,  999.0
2000/12/10 20:10,  999.0,    4.2,    5.3,    5.3,    0.3,    7.2,    9.9,  999.0,    9.2,    9.3,    9.6,    9.2,    9.8,   11.8,   11.0,  999.0,  999.0,  999.0,  999.0,  999.0,    4.0,  999.0,  999.0,  999.0,  999.0,  999.0,  999.0,  999.0,  999.0,  999.0,  999.0,  999.0,  999.0,  999.0,  999.0,  999.0,  999.0,  999.0,  999.0,  999.0,  999.0,  999.0,  999.0,  999.0,  999.0,  999.0,  999.0,  999.0,  999.0,  999.0,  999.0,  999.0,  999.0,  999.0,  999.0,  999.0,  999.0,  999.0
2000/12/10 20:20,  999.0,    5.2,    3.0,    4.9,    6.3,    9.4,  999.0,  999.0,    8.7,    7.7,    8.6,    7.6,  999.0,    7.8,   11.2,  999.0,  999.0,  999.0,  999.0,  999.0,    3.7,    4.3,  999.0,  999.0,  999.0,  999.0,  999.0,   -0.5,  999.0,  999.0,  999.0,  999.0,  999.0,  999.0,  999.0,  999.0,  999.0,  999.0,  999.0,  999.0,  999.0,  999.0,  999.0,  999.0,  999.0,  999.0,  999.0,  -19.2,  999.0,  -19.3,  999.0,  999.0,  -18.8,  -18.2,  999.0,  -18.0,  999.0,  999.0
2000/12/10 20:30,  999.0,    3.0,    4.1,    4.5,  999.0,    4.6,    9.0,   -0.3,    5.8,    7.2,    8.3,    9.1,   10.3,    9.2,  999.0,  999.0,  999.0,  999.0,  999.0,   13.0,  999.0,  999.0,  999.0,  999.0,    5.0,  999.0,  999.0,  999.0,  999.0,  999.0,  999.0,  999.0,  999.0,  999.0,  999.0,  999.0,  999.0,  999.0,  999.0,  999.0,  999.0,  999.0,  999.0,  -22.1,  999.0,  999.0,  -22.4,  -22.8,  -22.4,  999.0,  -22.9,  -22.5,  -23.0,  -23.5,  999.0,  999.0,  -23.6,  -22.8
2000/12/10 20:40,  999.0,   -0.7,    2.0,    1.9,    4.6,    4.2,    8.5,    7.4,    6.2,    6.0,    8.6,    7.2,    6.8,  999.0,    1.3,  999.0,  999.0,  999.0,  999.0,   -2.4,  999.0,  999.0,  999.0,  999.0,  999.0,  999.0,  999.0,  999.0,  999.0,  999.0,  999.0,  999.0,  999.0,  999.0,  -35.9,  999.0,  -40.7,  999.0,  999.0,  -35.7,  -28.2,  -41.3,  -25.4,  -41.2,  -31.8,  -30.8,  -41.5,  -29.0,  -28.0,  -41.7,  -10.4,   -8.7,  999.0,  -22.7,   -2.1,  -42.3,  -21.3,  999.0
2000/12/10 20:50,  999.0,    0.8,    2.1,    2.7,    4.3,   -0.1,    2.6,    4.3,    5.6,    7.4,    6.3,    6.5,    6.0,  999.0,    4.6,  999.0,  999.0,    1.0,  999.0,   -1.2,  999.0,  999.0,  999.0,  999.0,   -5.2,  999.0,  999.0,  999.0,  999.0,  999.0,  999.0,  -33.3,  999.0,  999.0,  999.0,  -36.9,  -18.5,  -29.2,  999.0,  -30.1,  -19.1,  -42.4,  -41.7,  999.0,  999.0,  -41.9,  999.0,  999.0,  999.0,  999.0,  -42.5,  999.0,  999.0,  999.0,  -42.4,  999.0,  -41.6,  999.0
2000/12/10 21:00,  999.0,  999.0,    0.1,    4.3,   -0.1,   -0.3,    4.7,    4.9,    5.2,    4.7,    7.2,    7.7,    6.6,    7.4,    6.8,    5.2,  999.0,   -0.2,  999.0,  999.0,  999.0,  999.0,  999.0,  999.0,  999.0,  999.0,  999.0,  999.0,  999.0,  999.0,  999.0,  999.0,  999.0,   -8.8,  999.0,   -6.7,  999.0,   -5.0,  999.0,  999.0,  999.0,  999.0,   -2.5,   -1.5,  999.0,  999.0,  999.0,  999.0,  999.0,   -0.7,   -0.6,   -0.8,   -1.0,  999.0,   -0.9,  999.0,  999.0,   -0.7
2000/12/10 21:10,  999.0,   -1.1,   -0.9,    1.3,    0.4,    0.3,    3.6,    3.1,    5.6,    6.5,    6.5,    5.8,    5.2,    6.2,    6.6,    7.7,  999.0,  999.0,  999.0,  999.0,  999.0,  999.0,  999.0,  999.0,  999.0,  999.0,  999.0,  999.0,  999.0,  999.0,  999.0,  999.0,  999.0,  999.0,  999.0,   -8.4,   -7.7,  999.0,   -6.7,   -6.2,   -5.7,   -5.1,   -4.2,  999.0,   -3.3,  999.0,  999.0,   -1.3,  999.0,   -0.7,   -0.2,  999.0,   -0.8,  999.0,   -1.1,  999.0,   -1.5,  999.0
2000/12/10 21:20,  999.0,   -1.2,   -0.4,    1.1,  999.0,    2.6,    2.7,  999.0,  999.0,    4.7,    5.7,  999.0,    4.9,    5.2,  999.0,  999.0,  999.0,  999.0,  999.0,  999.0,  999.0,  999.0,  999.0,  999.0,  999.0,  999.0,  999.0,  999.0,  999.0,  999.0,  999.0,  999.0,  999.0,   -8.3,  999.0,  999.0,  999.0,  999.0,  999.0,   -2.9,   -3.3,   -2.7,  999.0,   -1.7,   -1.2,   -0.4,  999.0,   10.0,  999.0,  999.0,   20.6,   13.5,   -0.8,   -0.7,   20.2,  999.0,   -0.9,   -1.0
2000/12/10 21:30,  999.0,    0.1,   -0.4,    0.5,    2.6,    0.6,    5.6,  999.0,    5.1,  999.0,    3.7,    4.5,    4.5,    4.9,  999.0,  999.0,  999.0,    4.0,    3.8,  999.0,   -4.7,  999.0,  999.0,  999.0,  999.0,  999.0,   -5.0,  999.0,  999.0,  999.0,  999.0,  999.0,   -5.5,  999.0,   -2.6,   -1.3,  999.0,   -0.7,   -1.1,   -0.6,   -0.6,   -0.5,   -0.9,   -0.8,   -0.7,   -0.8,   -0.3,   -0.9,   -0.8,   -0.9,   -1.0,   -1.0,   -0.6,   -0.6,   -0.7,   -0.7,   -0.8,   -0.0
2000/12/10 21:40,  999.0,    0.6,   -0.6,    2.1,    2.3,    1.8,    2.0,  999.0,    5.1,    4.8,  999.0,    4.3,    3.9,  999.0,    4.8,  999.0,  999.0,  999.0,   11.3,  999.0,  999.0,  999.0,  999.0,  999.0,  999.0,  999.0,  999.0,  999.0,  999.0,  999.0,  999.0,  999.0,  999.0,   -1.5,   -0.9,  999.0,   -0.7,   -0.6,   -1.2,  999.0,   -0.9,   -0.8,   -0.7,   -0.6,   -0.7,   -0.8,  999.0,  999.0,   -1.2,   -0.9,   -1.2,   -0.3,   -0.4,   -0.3,   -0.4,   -0.8,   -0.9,  999.0
2000/12/10 21:50,  999.0,    0.9,    1.5,    0.5,    2.6,    3.2,    3.6,    4.8,    4.8,    4.0,    4.0,    4.2,    4.1,    4.1,    4.3,    5.1,    7.9,  999.0,  999.0,    1.7,    2.2,  999.0,  999.0,  999.0,  999.0,  999.0,  999.0,  999.0,  999.0,  999.0,  999.0,  999.0,  999.0,   -2.8,   -1.7,   -0.3,  999.0,   -1.1,   -1.0,   -0.2,   -0.6,   -0.8,   -0.8,   -0.6,  999.0,   -1.7,   -0.9,  999.0,   -1.3,   -0.5,  999.0,   -0.7,   -0.3,   -0.4,   -0.6,   -1.2,   -1.2,   -0.4
2000/12/10 22:00,  999.0,    1.1,    0.6,    1.3,    0.1,    1.9,    2.4,    4.0,    3.6,    3.6,    0.9,    4.0,    5.2,    5.9,    6.5,    7.3,    9.1,  999.0,  999.0,  999.0,  999.0,  999.0,  999.0,  999.0,  999.0,  999.0,  999.0,  999.0,  999.0,  999.0,  999.0,  999.0,  999.0,   -0.9,   -0.4,   -0.1,   -0.4,   -0.8,   -0.4,   -0.6,  999.0,   -0.7,   -0.8,   -0.4,   -1.1,   -0.7,   -0.9,   -1.1,   -0.7,  999.0,   -1.5,   -1.0,   -0.8,   -1.1,   -1.2,   -1.9,   -0.7,   -1.3
2000/12/10 22:10,  999.0,    1.2,    1.1,    1.4,    0.3,    2.5,    4.1,    5.2,    5.1,    8.8,    2.4,  999.0,  999.0,    6.3,    6.8,    7.3,    8.0,  999.0,  999.0,  999.0,   -0.2,  999.0,  999.0,  999.0,  999.0,    9.7,  999.0,  999.0,  999.0,   -0.8,  999.0,   -1.1,   -1.1,   -0.6,   -0.4,   -0.4,   -1.2,   -0.5,   -1.2,   -1.3,   -0.9,   -0.5,   -0.3,   -0.4,   -0.6,   -0.7,   -0.7,   -0.9,  999.0,   -0.8,  999.0,   -0.7,   -0.9,   -0.9,   -0.3,   -1.1,   -0.9,   -1.0
2000/12/10 22:20,  999.0,    0.6,   -1.7,    1.1,    2.0,    3.0,    4.0,    6.4,    7.4,  999.0,  999.0,    6.3,  999.0,  999.0,    7.2,    8.9,    8.4,  999.0,    5.5,  999.0,  999.0,  -10.4,  999.0,  999.0,  999.0,  999.0,  999.0,  999.0,  999.0,  -41.5,  999.0,  -41.3,   -8.4,  -17.1,    2.8,   -0.8,  -10.6,   -0.1,   -0.2,  -21.0,  -41.7,  -14.0,   -0.3,    1.1,    2.5,  999.0,  999.0,   14.4,   -3.0,   -5.7,   -0.9,   -0.4,   -0.7,   13.6,  999.0,   -0.6,   -1.2,  -10.5
2000/12/10 22:30,  999.0,    1.2,    0.4,    1.9,    1.4,    3.0,    4.2,    2.7,    0.5,    2.0,    0.4,  999.0,    7.7,  999.0,    5.8,  999.0,  999.0,   14.0,  999.0,  999.0,  999.0,  999.0,  999.0,  999.0,  999.0,  999.0,  999.0,  999.0,  999.0,  999.0,  999.0,  999.0,   -0.8,   -1.2,   -0.6,   -1.3,   -1.1,   -0.7,   -0.8,  999.0,   -0.6,   -0.1,   -0.9,   -0.3,  999.0,   -0.8,   -0.7,   -1.0,   -0.6,   -0.9,   -1.0,   -0.3,   -1.3,   -0.9,  999.0,   -1.0,   -0.7,   -0.3
2000/12/10 22:40,  999.0,    0.9,   -0.9,    1.5,    2.4,    3.7,    0.7,  999.0,   -0.2,    2.8,    0.0,  999.0,   -2.4,  999.0,  999.0,  999.0,  999.0,    8.7,  999.0,  999.0,  999.0,   33.2,  999.0,  999.0,  999.0,   40.4,   41.7,  999.0,  999.0,  999.0,   41.9,  999.0,   41.9,  999.0,   41.8,  999.0,   41.7,   20.4,   -1.3,  999.0,  999.0,  999.0,  999.0,  999.0,   -1.0,   -1.4,   41.7,   41.7,   -0.8,   -0.3,   -0.3,   20.6,   20.9,   41.6,  999.0,  999.0,   -0.5,  999.0
2000/12/10 22:50,  999.0,    0.1,    0.9,    1.1,    1.6,    0.3,    0.6,    5.8,  999.0,    6.1,    6.6,    6.5,    7.0,  999.0,  999.0,  999.0,   20.9,  999.0,   23.7,  999.0,   28.5,   28.2,  999.0,   33.9,   31.9,   34.7,   37.2,   38.8,  999.0,   41.6,   40.2,   41.7,   41.8,   42.0,  999.0,   41.8,   41.5,   41.7,   42.1,   41.8,   41.6,   41.9,   42.6,   41.9,   41.7,   41.4,   41.9,  999.0,   42.1,   41.7,  999.0,   41.6,   41.9,   41.7,   42.2,   41.7,   41.6,   41.7
2000/12/10 23:00,  999.0,    0.0,   -0.4,    0.8,    2.2,    0.2,    3.1,    4.1,    5.3,    5.8,    6.1,    6.6,    7.5,   20.9,  999.0,   20.5,   12.2,   14.6,   21.9,   24.1,   27.1,  999.0,   34.6,   36.3,   42.1,   41.8,   42.1,   19.8,   41.8,   41.5,   42.4,   42.0,   20.3,   42.3,   41.9,   31.1,   20.4,   31.1,   42.1,   41.9,   41.7,  999.0,  999.0,   41.8,   40.7,   20.2,   -1.3,  999.0,   -0.6,   41.5,   41.6,   -0.0,  999.0,   42.3,  999.0,   42.7,   34.6,   42.2
2000/12/10 23:10,  999.0,   -0.1,   -0.1,    2.7,    3.4,  999.0,    5.1,    5.5,    4.8,    6.0,    5.6,    7.4,    7.8,    8.1,    8.1,    6.9,    6.4,    7.3,    6.9,  999.0,  999.0,  999.0,  999.0,  999.0,  999.0,  999.0,  999.0,  999.0,   34.3,   36.0,   39.7,   39.1,   41.1,   41.2,   40.9,  999.0,   41.3,  999.0,   41.5,  999.0,  999.0,   41.1,   41.8,   42.5,   41.6,   42.1,  999.0,   41.7,   41.3,  999.0,   41.5,   41.0,   41.2,   42.1,   41.9,   41.3,   41.9,   41.1
2000/12/10 23:20,  999.0,    0.5,    1.5,    2.7,    2.4,    2.3,    4.4,    3.7,    6.0,    6.3,    6.6,  999.0,    7.5,    6.9,    6.5,    6.8,    6.9,    7.2,  999.0,  999.0,  999.0,  999.0,  999.0,   25.0,  999.0,   21.4,   22.7,  999.0,   31.1,   31.8,   32.9,   32.8,   33.4,   34.7,   27.9,  999.0,   37.4,   38.9,   39.5,   42.6,   42.1,   41.4,   41.6,   41.8,   42.1,   41.6,   41.1,   41.6,   41.6,  999.0,   42.1,   42.2,  999.0,   41.7,   41.4,   41.3,   41.9,  999.0
2000/12/10 23:30,  999.0,    1.8,    2.7,    2.9,    4.3,    1.5,    4.7,    4.4,    5.4,    6.8,  999.0,    7.4,    8.1,    7.9,    7.0,    9.3,    7.2,  999.0,  999.0,  999.0,  999.0,   24.3,   23.3,  999.0,   27.7,   30.5,   30.5,   30.6,   31.4,   32.7,   33.1,   35.2,   36.3,   37.4,   39.2,   38.5,   41.0,   41.5,   41.8,   41.0,   41.5,   41.3,   35.5,   25.4,   30.4,   34.4,   35.9,   37.0,   39.2,   42.2,   42.1,   42.1,   41.9,   41.8,  999.0,   41.6,   41.6,   42.3
2000/12/10 23:40,  999.0,    1.2,    5.4,    2.8,    4.8,    0.3,   -0.7,    9.3,    4.9,    6.3,  999.0,    5.5,    5.9,    5.6,    6.2,    6.6,    5.6,  999.0,   12.0,  999.0,   20.1,  999.0,  999.0,   30.0,   31.1,  999.0,   26.1,  999.0,   30.2,   34.3,   36.0,   35.4,   38.1,   41.9,   40.4,   41.2,   41.4,   41.8,   41.6,  999.0,   41.7,   41.4,   41.6,   41.7,  999.0,   42.0,   42.0,   42.1,   41.6,   41.8,   41.8,   40.9,   41.4,   42.0,   42.2,   42.1,   41.7,   41.8
2000/12/10 23:50,  999.0,    4.0,    4.2,   -0.4,    2.2,    1.2,    4.4,    4.0,    6.2,    9.3,   10.7,    8.4,    9.1,    7.7,    8.1,    4.9,    1.2,  999.0,  999.0,  999.0,  999.0,  999.0,  999.0,  999.0,  999.0,  999.0,    9.4,  999.0,  999.0,    7.8,  -12.9,  999.0,  999.0,  999.0,  999.0,  999.0,  999.0,  999.0,  999.0,  -14.1,  -13.8,  999.0,  -13.5,  -13.2,  999.0,  999.0,  999.0,  999.0,  999.0,  999.0,  999.0,  999.0,  999.0,  999.0,  -13.9,  999.0,  999.0,  999.0
